<?xml version="1.0" encoding="UTF-8" standalone="no" ?>
<gpx xmlns="http://www.topografix.com/GPX/1/1" xmlns:xsi="http://www.w3.org/2001/XMLSchema-instance" xsi:schemaLocation="http://www.topografix.com/GPX/1/1 http://www.topografix.com/GPX/1/1/gpx.xsd" version="1.1" creator="VisuGPX - https://www.visugpx.com">
  <metadata>
    <name>la molière depuis autrans</name>
    <desc><![CDATA[autrans la moliere la croix perrin meaudre autrans]]></desc>
  </metadata>
  <trk>
    <name><![CDATA[20181113161136-3zz2Q]]></name>
    <trkseg>
      <trkpt lat="45.17497" lon="5.54325">
        <ele>1044</ele>
        <time>2007-05-21T06:00:00Z</time>
      </trkpt>
      <trkpt lat="45.17503" lon="5.54321">
        <ele>1043</ele>
        <time>2007-05-21T06:00:03Z</time>
      </trkpt>
      <trkpt lat="45.17468" lon="5.54345">
        <ele>1044</ele>
        <time>2007-05-21T06:00:18Z</time>
      </trkpt>
      <trkpt lat="45.17452" lon="5.54343">
        <ele>1044</ele>
        <time>2007-05-21T06:00:24Z</time>
      </trkpt>
      <trkpt lat="45.17444" lon="5.54328">
        <ele>1045</ele>
        <time>2007-05-21T06:00:30Z</time>
      </trkpt>
      <trkpt lat="45.17455" lon="5.54298">
        <ele>1045</ele>
        <time>2007-05-21T06:00:39Z</time>
      </trkpt>
      <trkpt lat="45.17469" lon="5.543">
        <ele>1045</ele>
        <time>2007-05-21T06:00:45Z</time>
      </trkpt>
      <trkpt lat="45.1746" lon="5.5429">
        <ele>1045</ele>
        <time>2007-05-21T06:00:49Z</time>
      </trkpt>
      <trkpt lat="45.1748" lon="5.54252">
        <ele>1046</ele>
        <time>2007-05-21T06:01:02Z</time>
      </trkpt>
      <trkpt lat="45.17532" lon="5.5428">
        <ele>1047</ele>
        <time>2007-05-21T06:01:25Z</time>
      </trkpt>
      <trkpt lat="45.17551" lon="5.54334">
        <ele>1046</ele>
        <time>2007-05-21T06:01:42Z</time>
      </trkpt>
      <trkpt lat="45.17625" lon="5.54461">
        <ele>1047</ele>
        <time>2007-05-21T06:02:28Z</time>
      </trkpt>
      <trkpt lat="45.17611" lon="5.5448">
        <ele>1047</ele>
        <time>2007-05-21T06:02:36Z</time>
      </trkpt>
      <trkpt lat="45.17713" lon="5.54278">
        <ele>1052</ele>
        <time>2007-05-21T06:03:46Z</time>
      </trkpt>
      <trkpt lat="45.17727" lon="5.54257">
        <ele>1053</ele>
        <time>2007-05-21T06:03:55Z</time>
      </trkpt>
      <trkpt lat="45.17968" lon="5.54387">
        <ele>1058</ele>
        <time>2007-05-21T06:05:38Z</time>
      </trkpt>
      <trkpt lat="45.18061" lon="5.54416">
        <ele>1062</ele>
        <time>2007-05-21T06:06:16Z</time>
      </trkpt>
      <trkpt lat="45.18155" lon="5.54459">
        <ele>1067</ele>
        <time>2007-05-21T06:06:55Z</time>
      </trkpt>
      <trkpt lat="45.18203" lon="5.54466">
        <ele>1069</ele>
        <time>2007-05-21T06:07:15Z</time>
      </trkpt>
      <trkpt lat="45.18221" lon="5.54455">
        <ele>1070</ele>
        <time>2007-05-21T06:07:23Z</time>
      </trkpt>
      <trkpt lat="45.18276" lon="5.5445">
        <ele>1073</ele>
        <time>2007-05-21T06:07:45Z</time>
      </trkpt>
      <trkpt lat="45.18296" lon="5.5451">
        <ele>1073</ele>
        <time>2007-05-21T06:08:04Z</time>
      </trkpt>
      <trkpt lat="45.18308" lon="5.54618">
        <ele>1073</ele>
        <time>2007-05-21T06:08:35Z</time>
      </trkpt>
      <trkpt lat="45.18293" lon="5.54661">
        <ele>1074</ele>
        <time>2007-05-21T06:08:48Z</time>
      </trkpt>
      <trkpt lat="45.18235" lon="5.54762">
        <ele>1071</ele>
        <time>2007-05-21T06:09:25Z</time>
      </trkpt>
      <trkpt lat="45.18239" lon="5.54778">
        <ele>1071</ele>
        <time>2007-05-21T06:09:30Z</time>
      </trkpt>
      <trkpt lat="45.18265" lon="5.54807">
        <ele>1072</ele>
        <time>2007-05-21T06:09:43Z</time>
      </trkpt>
      <trkpt lat="45.18265" lon="5.54827">
        <ele>1073</ele>
        <time>2007-05-21T06:09:49Z</time>
      </trkpt>
      <trkpt lat="45.18309" lon="5.54837">
        <ele>1074</ele>
        <time>2007-05-21T06:10:06Z</time>
      </trkpt>
      <trkpt lat="45.18332" lon="5.54875">
        <ele>1078</ele>
        <time>2007-05-21T06:10:20Z</time>
      </trkpt>
      <trkpt lat="45.1841" lon="5.54903">
        <ele>1091</ele>
        <time>2007-05-21T06:10:53Z</time>
      </trkpt>
      <trkpt lat="45.18457" lon="5.54984">
        <ele>1102</ele>
        <time>2007-05-21T06:11:23Z</time>
      </trkpt>
      <trkpt lat="45.18447" lon="5.54995">
        <ele>1106</ele>
        <time>2007-05-21T06:11:28Z</time>
      </trkpt>
      <trkpt lat="45.18437" lon="5.55068">
        <ele>1114</ele>
        <time>2007-05-21T06:11:49Z</time>
      </trkpt>
      <trkpt lat="45.18459" lon="5.55114">
        <ele>1121</ele>
        <time>2007-05-21T06:12:04Z</time>
      </trkpt>
      <trkpt lat="45.18495" lon="5.55125">
        <ele>1123</ele>
        <time>2007-05-21T06:12:19Z</time>
      </trkpt>
      <trkpt lat="45.18531" lon="5.55151">
        <ele>1125</ele>
        <time>2007-05-21T06:12:35Z</time>
      </trkpt>
      <trkpt lat="45.18552" lon="5.55146">
        <ele>1124</ele>
        <time>2007-05-21T06:12:44Z</time>
      </trkpt>
      <trkpt lat="45.18558" lon="5.55165">
        <ele>1127</ele>
        <time>2007-05-21T06:12:50Z</time>
      </trkpt>
      <trkpt lat="45.18539" lon="5.55169">
        <ele>1129</ele>
        <time>2007-05-21T06:12:58Z</time>
      </trkpt>
      <trkpt lat="45.18551" lon="5.55279">
        <ele>1138</ele>
        <time>2007-05-21T06:13:29Z</time>
      </trkpt>
      <trkpt lat="45.18576" lon="5.55327">
        <ele>1143</ele>
        <time>2007-05-21T06:13:46Z</time>
      </trkpt>
      <trkpt lat="45.18608" lon="5.55342">
        <ele>1145</ele>
        <time>2007-05-21T06:14:00Z</time>
      </trkpt>
      <trkpt lat="45.18639" lon="5.5539">
        <ele>1148</ele>
        <time>2007-05-21T06:14:18Z</time>
      </trkpt>
      <trkpt lat="45.18636" lon="5.55436">
        <ele>1150</ele>
        <time>2007-05-21T06:14:31Z</time>
      </trkpt>
      <trkpt lat="45.18601" lon="5.55473">
        <ele>1146</ele>
        <time>2007-05-21T06:14:49Z</time>
      </trkpt>
      <trkpt lat="45.18599" lon="5.55485">
        <ele>1144</ele>
        <time>2007-05-21T06:14:52Z</time>
      </trkpt>
      <trkpt lat="45.18637" lon="5.55503">
        <ele>1152</ele>
        <time>2007-05-21T06:15:08Z</time>
      </trkpt>
      <trkpt lat="45.18779" lon="5.5563">
        <ele>1167</ele>
        <time>2007-05-21T06:16:15Z</time>
      </trkpt>
      <trkpt lat="45.18811" lon="5.55674">
        <ele>1171</ele>
        <time>2007-05-21T06:16:33Z</time>
      </trkpt>
      <trkpt lat="45.18842" lon="5.55738">
        <ele>1173</ele>
        <time>2007-05-21T06:16:56Z</time>
      </trkpt>
      <trkpt lat="45.18905" lon="5.55825">
        <ele>1178</ele>
        <time>2007-05-21T06:17:30Z</time>
      </trkpt>
      <trkpt lat="45.19082" lon="5.55868">
        <ele>1188</ele>
        <time>2007-05-21T06:18:42Z</time>
      </trkpt>
      <trkpt lat="45.19151" lon="5.55931">
        <ele>1196</ele>
        <time>2007-05-21T06:19:15Z</time>
      </trkpt>
      <trkpt lat="45.19186" lon="5.55944">
        <ele>1201</ele>
        <time>2007-05-21T06:19:30Z</time>
      </trkpt>
      <trkpt lat="45.19245" lon="5.56005">
        <ele>1212</ele>
        <time>2007-05-21T06:19:59Z</time>
      </trkpt>
      <trkpt lat="45.19259" lon="5.56007">
        <ele>1213</ele>
        <time>2007-05-21T06:20:05Z</time>
      </trkpt>
      <trkpt lat="45.19273" lon="5.56027">
        <ele>1216</ele>
        <time>2007-05-21T06:20:13Z</time>
      </trkpt>
      <trkpt lat="45.19276" lon="5.56021">
        <ele>1216</ele>
        <time>2007-05-21T06:20:15Z</time>
      </trkpt>
      <trkpt lat="45.19237" lon="5.56085">
        <ele>1219</ele>
        <time>2007-05-21T06:20:39Z</time>
      </trkpt>
      <trkpt lat="45.19251" lon="5.56108">
        <ele>1221</ele>
        <time>2007-05-21T06:20:47Z</time>
      </trkpt>
      <trkpt lat="45.19344" lon="5.56174">
        <ele>1227</ele>
        <time>2007-05-21T06:21:29Z</time>
      </trkpt>
      <trkpt lat="45.19437" lon="5.56218">
        <ele>1234</ele>
        <time>2007-05-21T06:22:08Z</time>
      </trkpt>
      <trkpt lat="45.19463" lon="5.56215">
        <ele>1235</ele>
        <time>2007-05-21T06:22:19Z</time>
      </trkpt>
      <trkpt lat="45.19529" lon="5.56231">
        <ele>1244</ele>
        <time>2007-05-21T06:22:45Z</time>
      </trkpt>
      <trkpt lat="45.19561" lon="5.56264">
        <ele>1247</ele>
        <time>2007-05-21T06:23:01Z</time>
      </trkpt>
      <trkpt lat="45.19593" lon="5.5628">
        <ele>1253</ele>
        <time>2007-05-21T06:23:15Z</time>
      </trkpt>
      <trkpt lat="45.19645" lon="5.5629">
        <ele>1256</ele>
        <time>2007-05-21T06:23:36Z</time>
      </trkpt>
      <trkpt lat="45.19693" lon="5.56279">
        <ele>1265</ele>
        <time>2007-05-21T06:23:56Z</time>
      </trkpt>
      <trkpt lat="45.19755" lon="5.56228">
        <ele>1271</ele>
        <time>2007-05-21T06:24:24Z</time>
      </trkpt>
      <trkpt lat="45.19778" lon="5.56222">
        <ele>1272</ele>
        <time>2007-05-21T06:24:34Z</time>
      </trkpt>
      <trkpt lat="45.19854" lon="5.56164">
        <ele>1269</ele>
        <time>2007-05-21T06:25:08Z</time>
      </trkpt>
      <trkpt lat="45.19869" lon="5.56143">
        <ele>1269</ele>
        <time>2007-05-21T06:25:17Z</time>
      </trkpt>
      <trkpt lat="45.19954" lon="5.5609">
        <ele>1267</ele>
        <time>2007-05-21T06:25:54Z</time>
      </trkpt>
      <trkpt lat="45.20043" lon="5.56087">
        <ele>1272</ele>
        <time>2007-05-21T06:26:30Z</time>
      </trkpt>
      <trkpt lat="45.20054" lon="5.56074">
        <ele>1271</ele>
        <time>2007-05-21T06:26:35Z</time>
      </trkpt>
      <trkpt lat="45.20058" lon="5.56082">
        <ele>1274</ele>
        <time>2007-05-21T06:26:38Z</time>
      </trkpt>
      <trkpt lat="45.20079" lon="5.56065">
        <ele>1272</ele>
        <time>2007-05-21T06:26:48Z</time>
      </trkpt>
      <trkpt lat="45.20218" lon="5.56051">
        <ele>1273</ele>
        <time>2007-05-21T06:27:44Z</time>
      </trkpt>
      <trkpt lat="45.2025" lon="5.5606">
        <ele>1273</ele>
        <time>2007-05-21T06:27:57Z</time>
      </trkpt>
      <trkpt lat="45.20326" lon="5.56034">
        <ele>1276</ele>
        <time>2007-05-21T06:28:28Z</time>
      </trkpt>
      <trkpt lat="45.20506" lon="5.55998">
        <ele>1276</ele>
        <time>2007-05-21T06:29:41Z</time>
      </trkpt>
      <trkpt lat="45.20546" lon="5.5597">
        <ele>1274</ele>
        <time>2007-05-21T06:29:59Z</time>
      </trkpt>
      <trkpt lat="45.20613" lon="5.55949">
        <ele>1276</ele>
        <time>2007-05-21T06:30:26Z</time>
      </trkpt>
      <trkpt lat="45.20678" lon="5.55874">
        <ele>1278</ele>
        <time>2007-05-21T06:31:00Z</time>
      </trkpt>
      <trkpt lat="45.20714" lon="5.55856">
        <ele>1281</ele>
        <time>2007-05-21T06:31:16Z</time>
      </trkpt>
      <trkpt lat="45.20775" lon="5.55869">
        <ele>1281</ele>
        <time>2007-05-21T06:31:40Z</time>
      </trkpt>
      <trkpt lat="45.20815" lon="5.55863">
        <ele>1282</ele>
        <time>2007-05-21T06:31:56Z</time>
      </trkpt>
      <trkpt lat="45.20895" lon="5.55875">
        <ele>1287</ele>
        <time>2007-05-21T06:32:28Z</time>
      </trkpt>
      <trkpt lat="45.20923" lon="5.55891">
        <ele>1287</ele>
        <time>2007-05-21T06:32:41Z</time>
      </trkpt>
      <trkpt lat="45.20952" lon="5.55925">
        <ele>1292</ele>
        <time>2007-05-21T06:32:55Z</time>
      </trkpt>
      <trkpt lat="45.2098" lon="5.55943">
        <ele>1296</ele>
        <time>2007-05-21T06:33:08Z</time>
      </trkpt>
      <trkpt lat="45.21017" lon="5.55942">
        <ele>1297</ele>
        <time>2007-05-21T06:33:23Z</time>
      </trkpt>
      <trkpt lat="45.21065" lon="5.55927">
        <ele>1293</ele>
        <time>2007-05-21T06:33:42Z</time>
      </trkpt>
      <trkpt lat="45.21114" lon="5.55934">
        <ele>1294</ele>
        <time>2007-05-21T06:34:02Z</time>
      </trkpt>
      <trkpt lat="45.2122" lon="5.55982">
        <ele>1296</ele>
        <time>2007-05-21T06:34:47Z</time>
      </trkpt>
      <trkpt lat="45.21263" lon="5.56036">
        <ele>1301</ele>
        <time>2007-05-21T06:35:10Z</time>
      </trkpt>
      <trkpt lat="45.21305" lon="5.5606">
        <ele>1302</ele>
        <time>2007-05-21T06:35:28Z</time>
      </trkpt>
      <trkpt lat="45.21361" lon="5.56054">
        <ele>1301</ele>
        <time>2007-05-21T06:35:50Z</time>
      </trkpt>
      <trkpt lat="45.21398" lon="5.56063">
        <ele>1303</ele>
        <time>2007-05-21T06:36:05Z</time>
      </trkpt>
      <trkpt lat="45.21399" lon="5.56052">
        <ele>1304</ele>
        <time>2007-05-21T06:36:08Z</time>
      </trkpt>
      <trkpt lat="45.21406" lon="5.56052">
        <ele>1301</ele>
        <time>2007-05-21T06:36:11Z</time>
      </trkpt>
      <trkpt lat="45.21405" lon="5.56029">
        <ele>1299</ele>
        <time>2007-05-21T06:36:18Z</time>
      </trkpt>
      <trkpt lat="45.2138" lon="5.56021">
        <ele>1298</ele>
        <time>2007-05-21T06:36:28Z</time>
      </trkpt>
      <trkpt lat="45.2138" lon="5.56012">
        <ele>1298</ele>
        <time>2007-05-21T06:36:31Z</time>
      </trkpt>
      <trkpt lat="45.21632" lon="5.55996">
        <ele>1301</ele>
        <time>2007-05-21T06:38:12Z</time>
      </trkpt>
      <trkpt lat="45.21825" lon="5.56035">
        <ele>1297</ele>
        <time>2007-05-21T06:39:30Z</time>
      </trkpt>
      <trkpt lat="45.21853" lon="5.56107">
        <ele>1297</ele>
        <time>2007-05-21T06:39:53Z</time>
      </trkpt>
      <trkpt lat="45.21957" lon="5.5628">
        <ele>1302</ele>
        <time>2007-05-21T06:40:57Z</time>
      </trkpt>
      <trkpt lat="45.21995" lon="5.5636">
        <ele>1306</ele>
        <time>2007-05-21T06:41:25Z</time>
      </trkpt>
      <trkpt lat="45.21999" lon="5.56383">
        <ele>1307</ele>
        <time>2007-05-21T06:41:31Z</time>
      </trkpt>
      <trkpt lat="45.22039" lon="5.56446">
        <ele>1311</ele>
        <time>2007-05-21T06:41:55Z</time>
      </trkpt>
      <trkpt lat="45.22074" lon="5.56533">
        <ele>1317</ele>
        <time>2007-05-21T06:42:24Z</time>
      </trkpt>
      <trkpt lat="45.22084" lon="5.56618">
        <ele>1318</ele>
        <time>2007-05-21T06:42:48Z</time>
      </trkpt>
      <trkpt lat="45.22079" lon="5.56656">
        <ele>1320</ele>
        <time>2007-05-21T06:42:59Z</time>
      </trkpt>
      <trkpt lat="45.22042" lon="5.5672">
        <ele>1325</ele>
        <time>2007-05-21T06:43:22Z</time>
      </trkpt>
      <trkpt lat="45.22034" lon="5.56765">
        <ele>1330</ele>
        <time>2007-05-21T06:43:35Z</time>
      </trkpt>
      <trkpt lat="45.21999" lon="5.56857">
        <ele>1336</ele>
        <time>2007-05-21T06:44:05Z</time>
      </trkpt>
      <trkpt lat="45.21973" lon="5.56885">
        <ele>1338</ele>
        <time>2007-05-21T06:44:18Z</time>
      </trkpt>
      <trkpt lat="45.21927" lon="5.56893">
        <ele>1341</ele>
        <time>2007-05-21T06:44:37Z</time>
      </trkpt>
      <trkpt lat="45.21914" lon="5.56927">
        <ele>1344</ele>
        <time>2007-05-21T06:44:47Z</time>
      </trkpt>
      <trkpt lat="45.21926" lon="5.56947">
        <ele>1347</ele>
        <time>2007-05-21T06:44:55Z</time>
      </trkpt>
      <trkpt lat="45.21969" lon="5.56945">
        <ele>1350</ele>
        <time>2007-05-21T06:45:12Z</time>
      </trkpt>
      <trkpt lat="45.21996" lon="5.56954">
        <ele>1352</ele>
        <time>2007-05-21T06:45:23Z</time>
      </trkpt>
      <trkpt lat="45.22007" lon="5.56976">
        <ele>1353</ele>
        <time>2007-05-21T06:45:31Z</time>
      </trkpt>
      <trkpt lat="45.22001" lon="5.57042">
        <ele>1358</ele>
        <time>2007-05-21T06:45:50Z</time>
      </trkpt>
      <trkpt lat="45.2202" lon="5.57099">
        <ele>1358</ele>
        <time>2007-05-21T06:46:07Z</time>
      </trkpt>
      <trkpt lat="45.22003" lon="5.57119">
        <ele>1359</ele>
        <time>2007-05-21T06:46:16Z</time>
      </trkpt>
      <trkpt lat="45.21998" lon="5.5714">
        <ele>1359</ele>
        <time>2007-05-21T06:46:22Z</time>
      </trkpt>
      <trkpt lat="45.2203" lon="5.57225">
        <ele>1366</ele>
        <time>2007-05-21T06:46:49Z</time>
      </trkpt>
      <trkpt lat="45.22044" lon="5.57241">
        <ele>1369</ele>
        <time>2007-05-21T06:46:57Z</time>
      </trkpt>
      <trkpt lat="45.22063" lon="5.57237">
        <ele>1372</ele>
        <time>2007-05-21T06:47:04Z</time>
      </trkpt>
      <trkpt lat="45.2209" lon="5.57199">
        <ele>1374</ele>
        <time>2007-05-21T06:47:20Z</time>
      </trkpt>
      <trkpt lat="45.22111" lon="5.57209">
        <ele>1376</ele>
        <time>2007-05-21T06:47:29Z</time>
      </trkpt>
      <trkpt lat="45.22156" lon="5.5728">
        <ele>1382</ele>
        <time>2007-05-21T06:47:55Z</time>
      </trkpt>
      <trkpt lat="45.22186" lon="5.57297">
        <ele>1386</ele>
        <time>2007-05-21T06:48:08Z</time>
      </trkpt>
      <trkpt lat="45.22259" lon="5.57293">
        <ele>1387</ele>
        <time>2007-05-21T06:48:37Z</time>
      </trkpt>
      <trkpt lat="45.2236" lon="5.57219">
        <ele>1387</ele>
        <time>2007-05-21T06:49:23Z</time>
      </trkpt>
      <trkpt lat="45.2239" lon="5.57234">
        <ele>1390</ele>
        <time>2007-05-21T06:49:36Z</time>
      </trkpt>
      <trkpt lat="45.22411" lon="5.57224">
        <ele>1393</ele>
        <time>2007-05-21T06:49:45Z</time>
      </trkpt>
      <trkpt lat="45.22438" lon="5.5718">
        <ele>1398</ele>
        <time>2007-05-21T06:50:01Z</time>
      </trkpt>
      <trkpt lat="45.22466" lon="5.57158">
        <ele>1402</ele>
        <time>2007-05-21T06:50:14Z</time>
      </trkpt>
      <trkpt lat="45.22539" lon="5.57156">
        <ele>1409</ele>
        <time>2007-05-21T06:50:43Z</time>
      </trkpt>
      <trkpt lat="45.22575" lon="5.5718">
        <ele>1411</ele>
        <time>2007-05-21T06:50:59Z</time>
      </trkpt>
      <trkpt lat="45.22605" lon="5.57282">
        <ele>1420</ele>
        <time>2007-05-21T06:51:30Z</time>
      </trkpt>
      <trkpt lat="45.22678" lon="5.57347">
        <ele>1424</ele>
        <time>2007-05-21T06:52:05Z</time>
      </trkpt>
      <trkpt lat="45.22778" lon="5.57402">
        <ele>1417</ele>
        <time>2007-05-21T06:52:48Z</time>
      </trkpt>
      <trkpt lat="45.22858" lon="5.5743">
        <ele>1420</ele>
        <time>2007-05-21T06:53:21Z</time>
      </trkpt>
      <trkpt lat="45.229" lon="5.57433">
        <ele>1424</ele>
        <time>2007-05-21T06:53:38Z</time>
      </trkpt>
      <trkpt lat="45.22947" lon="5.57419">
        <ele>1427</ele>
        <time>2007-05-21T06:53:57Z</time>
      </trkpt>
      <trkpt lat="45.23" lon="5.5743">
        <ele>1434</ele>
        <time>2007-05-21T06:54:19Z</time>
      </trkpt>
      <trkpt lat="45.23044" lon="5.57421">
        <ele>1440</ele>
        <time>2007-05-21T06:54:36Z</time>
      </trkpt>
      <trkpt lat="45.23067" lon="5.57435">
        <ele>1442</ele>
        <time>2007-05-21T06:54:46Z</time>
      </trkpt>
      <trkpt lat="45.23093" lon="5.5748">
        <ele>1445</ele>
        <time>2007-05-21T06:55:03Z</time>
      </trkpt>
      <trkpt lat="45.23098" lon="5.57519">
        <ele>1447</ele>
        <time>2007-05-21T06:55:14Z</time>
      </trkpt>
      <trkpt lat="45.23093" lon="5.57595">
        <ele>1450</ele>
        <time>2007-05-21T06:55:36Z</time>
      </trkpt>
      <trkpt lat="45.23101" lon="5.57625">
        <ele>1451</ele>
        <time>2007-05-21T06:55:45Z</time>
      </trkpt>
      <trkpt lat="45.23126" lon="5.57632">
        <ele>1456</ele>
        <time>2007-05-21T06:55:55Z</time>
      </trkpt>
      <trkpt lat="45.23157" lon="5.57552">
        <ele>1458</ele>
        <time>2007-05-21T06:56:20Z</time>
      </trkpt>
      <trkpt lat="45.23235" lon="5.57475">
        <ele>1466</ele>
        <time>2007-05-21T06:56:59Z</time>
      </trkpt>
      <trkpt lat="45.23267" lon="5.57482">
        <ele>1467</ele>
        <time>2007-05-21T06:57:12Z</time>
      </trkpt>
      <trkpt lat="45.23381" lon="5.57557">
        <ele>1466</ele>
        <time>2007-05-21T06:58:02Z</time>
      </trkpt>
      <trkpt lat="45.23427" lon="5.57562">
        <ele>1475</ele>
        <time>2007-05-21T06:58:20Z</time>
      </trkpt>
      <trkpt lat="45.23455" lon="5.57583">
        <ele>1480</ele>
        <time>2007-05-21T06:58:33Z</time>
      </trkpt>
      <trkpt lat="45.23486" lon="5.57579">
        <ele>1485</ele>
        <time>2007-05-21T06:58:45Z</time>
      </trkpt>
      <trkpt lat="45.23503" lon="5.57589">
        <ele>1491</ele>
        <time>2007-05-21T06:58:53Z</time>
      </trkpt>
      <trkpt lat="45.23529" lon="5.57623">
        <ele>1496</ele>
        <time>2007-05-21T06:59:07Z</time>
      </trkpt>
      <trkpt lat="45.23534" lon="5.57621">
        <ele>1497</ele>
        <time>2007-05-21T06:59:09Z</time>
      </trkpt>
      <trkpt lat="45.23543" lon="5.57645">
        <ele>1498</ele>
        <time>2007-05-21T06:59:17Z</time>
      </trkpt>
      <trkpt lat="45.23626" lon="5.57708">
        <ele>1509</ele>
        <time>2007-05-21T06:59:55Z</time>
      </trkpt>
      <trkpt lat="45.23645" lon="5.57711">
        <ele>1508</ele>
        <time>2007-05-21T07:00:03Z</time>
      </trkpt>
      <trkpt lat="45.2366" lon="5.57699">
        <ele>1511</ele>
        <time>2007-05-21T07:00:09Z</time>
      </trkpt>
      <trkpt lat="45.23654" lon="5.57695">
        <ele>1512</ele>
        <time>2007-05-21T07:00:12Z</time>
      </trkpt>
      <trkpt lat="45.23695" lon="5.57695">
        <ele>1511</ele>
        <time>2007-05-21T07:00:28Z</time>
      </trkpt>
      <trkpt lat="45.23768" lon="5.5773">
        <ele>1519</ele>
        <time>2007-05-21T07:00:59Z</time>
      </trkpt>
      <trkpt lat="45.23788" lon="5.57727">
        <ele>1520</ele>
        <time>2007-05-21T07:01:07Z</time>
      </trkpt>
      <trkpt lat="45.23849" lon="5.57755">
        <ele>1520</ele>
        <time>2007-05-21T07:01:33Z</time>
      </trkpt>
      <trkpt lat="45.23885" lon="5.57758">
        <ele>1518</ele>
        <time>2007-05-21T07:01:47Z</time>
      </trkpt>
      <trkpt lat="45.23882" lon="5.57764">
        <ele>1518</ele>
        <time>2007-05-21T07:01:49Z</time>
      </trkpt>
      <trkpt lat="45.23887" lon="5.57768">
        <ele>1518</ele>
        <time>2007-05-21T07:01:52Z</time>
      </trkpt>
      <trkpt lat="45.23884" lon="5.57763">
        <ele>1518</ele>
        <time>2007-05-21T07:01:54Z</time>
      </trkpt>
      <trkpt lat="45.23899" lon="5.57779">
        <ele>1518</ele>
        <time>2007-05-21T07:02:01Z</time>
      </trkpt>
      <trkpt lat="45.23911" lon="5.57813">
        <ele>1512</ele>
        <time>2007-05-21T07:02:12Z</time>
      </trkpt>
      <trkpt lat="45.23934" lon="5.57815">
        <ele>1512</ele>
        <time>2007-05-21T07:02:21Z</time>
      </trkpt>
      <trkpt lat="45.23969" lon="5.57795">
        <ele>1512</ele>
        <time>2007-05-21T07:02:36Z</time>
      </trkpt>
      <trkpt lat="45.24011" lon="5.57752">
        <ele>1518</ele>
        <time>2007-05-21T07:02:57Z</time>
      </trkpt>
      <trkpt lat="45.24112" lon="5.57828">
        <ele>1511</ele>
        <time>2007-05-21T07:03:43Z</time>
      </trkpt>
      <trkpt lat="45.24186" lon="5.57908">
        <ele>1509</ele>
        <time>2007-05-21T07:04:20Z</time>
      </trkpt>
      <trkpt lat="45.24192" lon="5.57935">
        <ele>1510</ele>
        <time>2007-05-21T07:04:28Z</time>
      </trkpt>
      <trkpt lat="45.24166" lon="5.58068">
        <ele>1513</ele>
        <time>2007-05-21T07:05:07Z</time>
      </trkpt>
      <trkpt lat="45.24153" lon="5.58094">
        <ele>1512</ele>
        <time>2007-05-21T07:05:16Z</time>
      </trkpt>
      <trkpt lat="45.24124" lon="5.58202">
        <ele>1514</ele>
        <time>2007-05-21T07:05:49Z</time>
      </trkpt>
      <trkpt lat="45.24131" lon="5.58246">
        <ele>1517</ele>
        <time>2007-05-21T07:06:01Z</time>
      </trkpt>
      <trkpt lat="45.24131" lon="5.58328">
        <ele>1515</ele>
        <time>2007-05-21T07:06:25Z</time>
      </trkpt>
      <trkpt lat="45.24146" lon="5.58378">
        <ele>1511</ele>
        <time>2007-05-21T07:06:40Z</time>
      </trkpt>
      <trkpt lat="45.24147" lon="5.58411">
        <ele>1508</ele>
        <time>2007-05-21T07:06:49Z</time>
      </trkpt>
      <trkpt lat="45.24137" lon="5.58454">
        <ele>1506</ele>
        <time>2007-05-21T07:07:02Z</time>
      </trkpt>
      <trkpt lat="45.24117" lon="5.58499">
        <ele>1506</ele>
        <time>2007-05-21T07:07:17Z</time>
      </trkpt>
      <trkpt lat="45.24079" lon="5.58514">
        <ele>1502</ele>
        <time>2007-05-21T07:07:33Z</time>
      </trkpt>
      <trkpt lat="45.24018" lon="5.5851">
        <ele>1503</ele>
        <time>2007-05-21T07:07:58Z</time>
      </trkpt>
      <trkpt lat="45.23987" lon="5.58525">
        <ele>1503</ele>
        <time>2007-05-21T07:08:11Z</time>
      </trkpt>
      <trkpt lat="45.23879" lon="5.58615">
        <ele>1506</ele>
        <time>2007-05-21T07:09:01Z</time>
      </trkpt>
      <trkpt lat="45.23832" lon="5.58623">
        <ele>1509</ele>
        <time>2007-05-21T07:09:20Z</time>
      </trkpt>
      <trkpt lat="45.23776" lon="5.5869">
        <ele>1516</ele>
        <time>2007-05-21T07:09:49Z</time>
      </trkpt>
      <trkpt lat="45.23763" lon="5.58732">
        <ele>1524</ele>
        <time>2007-05-21T07:10:02Z</time>
      </trkpt>
      <trkpt lat="45.23758" lon="5.58809">
        <ele>1529</ele>
        <time>2007-05-21T07:10:24Z</time>
      </trkpt>
      <trkpt lat="45.2377" lon="5.58856">
        <ele>1528</ele>
        <time>2007-05-21T07:10:38Z</time>
      </trkpt>
      <trkpt lat="45.23755" lon="5.58907">
        <ele>1532</ele>
        <time>2007-05-21T07:10:54Z</time>
      </trkpt>
      <trkpt lat="45.23659" lon="5.59006">
        <ele>1535</ele>
        <time>2007-05-21T07:11:41Z</time>
      </trkpt>
      <trkpt lat="45.23636" lon="5.5904">
        <ele>1537</ele>
        <time>2007-05-21T07:11:55Z</time>
      </trkpt>
      <trkpt lat="45.2361" lon="5.59053">
        <ele>1535</ele>
        <time>2007-05-21T07:12:06Z</time>
      </trkpt>
      <trkpt lat="45.2358" lon="5.59086">
        <ele>1538</ele>
        <time>2007-05-21T07:12:21Z</time>
      </trkpt>
      <trkpt lat="45.23581" lon="5.59098">
        <ele>1541</ele>
        <time>2007-05-21T07:12:24Z</time>
      </trkpt>
      <trkpt lat="45.2364" lon="5.5909">
        <ele>1546</ele>
        <time>2007-05-21T07:12:48Z</time>
      </trkpt>
      <trkpt lat="45.23645" lon="5.59103">
        <ele>1548</ele>
        <time>2007-05-21T07:12:52Z</time>
      </trkpt>
      <trkpt lat="45.23638" lon="5.59122">
        <ele>1549</ele>
        <time>2007-05-21T07:12:58Z</time>
      </trkpt>
      <trkpt lat="45.23607" lon="5.59141">
        <ele>1551</ele>
        <time>2007-05-21T07:13:12Z</time>
      </trkpt>
      <trkpt lat="45.23569" lon="5.59182">
        <ele>1554</ele>
        <time>2007-05-21T07:13:31Z</time>
      </trkpt>
      <trkpt lat="45.23572" lon="5.59193">
        <ele>1556</ele>
        <time>2007-05-21T07:13:34Z</time>
      </trkpt>
      <trkpt lat="45.23586" lon="5.59196">
        <ele>1558</ele>
        <time>2007-05-21T07:13:40Z</time>
      </trkpt>
      <trkpt lat="45.23584" lon="5.59224">
        <ele>1561</ele>
        <time>2007-05-21T07:13:48Z</time>
      </trkpt>
      <trkpt lat="45.23566" lon="5.59244">
        <ele>1560</ele>
        <time>2007-05-21T07:13:57Z</time>
      </trkpt>
      <trkpt lat="45.23527" lon="5.59246">
        <ele>1563</ele>
        <time>2007-05-21T07:14:13Z</time>
      </trkpt>
      <trkpt lat="45.23507" lon="5.59265">
        <ele>1566</ele>
        <time>2007-05-21T07:14:22Z</time>
      </trkpt>
      <trkpt lat="45.23448" lon="5.59268">
        <ele>1571</ele>
        <time>2007-05-21T07:14:46Z</time>
      </trkpt>
      <trkpt lat="45.23437" lon="5.59294">
        <ele>1572</ele>
        <time>2007-05-21T07:14:55Z</time>
      </trkpt>
      <trkpt lat="45.2348" lon="5.59362">
        <ele>1576</ele>
        <time>2007-05-21T07:15:20Z</time>
      </trkpt>
      <trkpt lat="45.2353" lon="5.5941">
        <ele>1580</ele>
        <time>2007-05-21T07:15:45Z</time>
      </trkpt>
      <trkpt lat="45.23564" lon="5.59471">
        <ele>1589</ele>
        <time>2007-05-21T07:16:07Z</time>
      </trkpt>
      <trkpt lat="45.23551" lon="5.59486">
        <ele>1592</ele>
        <time>2007-05-21T07:16:13Z</time>
      </trkpt>
      <trkpt lat="45.23504" lon="5.595">
        <ele>1600</ele>
        <time>2007-05-21T07:16:33Z</time>
      </trkpt>
      <trkpt lat="45.23459" lon="5.59475">
        <ele>1594</ele>
        <time>2007-05-21T07:16:52Z</time>
      </trkpt>
      <trkpt lat="45.2341" lon="5.59531">
        <ele>1605</ele>
        <time>2007-05-21T07:17:17Z</time>
      </trkpt>
      <trkpt lat="45.23388" lon="5.59541">
        <ele>1607</ele>
        <time>2007-05-21T07:17:27Z</time>
      </trkpt>
      <trkpt lat="45.2337" lon="5.59536">
        <ele>1607</ele>
        <time>2007-05-21T07:17:34Z</time>
      </trkpt>
      <trkpt lat="45.23344" lon="5.59549">
        <ele>1613</ele>
        <time>2007-05-21T07:17:45Z</time>
      </trkpt>
      <trkpt lat="45.23277" lon="5.59503">
        <ele>1612</ele>
        <time>2007-05-21T07:18:14Z</time>
      </trkpt>
      <trkpt lat="45.2324" lon="5.59523">
        <ele>1612</ele>
        <time>2007-05-21T07:18:30Z</time>
      </trkpt>
      <trkpt lat="45.23204" lon="5.59558">
        <ele>1607</ele>
        <time>2007-05-21T07:18:48Z</time>
      </trkpt>
      <trkpt lat="45.23198" lon="5.59546">
        <ele>1608</ele>
        <time>2007-05-21T07:18:52Z</time>
      </trkpt>
      <trkpt lat="45.23167" lon="5.5953">
        <ele>1607</ele>
        <time>2007-05-21T07:19:06Z</time>
      </trkpt>
      <trkpt lat="45.23135" lon="5.59456">
        <ele>1606</ele>
        <time>2007-05-21T07:19:30Z</time>
      </trkpt>
      <trkpt lat="45.23114" lon="5.59428">
        <ele>1605</ele>
        <time>2007-05-21T07:19:41Z</time>
      </trkpt>
      <trkpt lat="45.23046" lon="5.59404">
        <ele>1607</ele>
        <time>2007-05-21T07:20:09Z</time>
      </trkpt>
      <trkpt lat="45.23031" lon="5.59385">
        <ele>1608</ele>
        <time>2007-05-21T07:20:18Z</time>
      </trkpt>
      <trkpt lat="45.23007" lon="5.59376">
        <ele>1607</ele>
        <time>2007-05-21T07:20:27Z</time>
      </trkpt>
      <trkpt lat="45.23002" lon="5.59365">
        <ele>1607</ele>
        <time>2007-05-21T07:20:31Z</time>
      </trkpt>
      <trkpt lat="45.22953" lon="5.59351">
        <ele>1610</ele>
        <time>2007-05-21T07:20:51Z</time>
      </trkpt>
      <trkpt lat="45.22888" lon="5.59386">
        <ele>1612</ele>
        <time>2007-05-21T07:21:19Z</time>
      </trkpt>
      <trkpt lat="45.22836" lon="5.59373">
        <ele>1610</ele>
        <time>2007-05-21T07:21:40Z</time>
      </trkpt>
      <trkpt lat="45.22795" lon="5.59374">
        <ele>1610</ele>
        <time>2007-05-21T07:21:57Z</time>
      </trkpt>
      <trkpt lat="45.22739" lon="5.59403">
        <ele>1607</ele>
        <time>2007-05-21T07:22:20Z</time>
      </trkpt>
      <trkpt lat="45.22714" lon="5.59401">
        <ele>1606</ele>
        <time>2007-05-21T07:22:31Z</time>
      </trkpt>
      <trkpt lat="45.22687" lon="5.59383">
        <ele>1607</ele>
        <time>2007-05-21T07:22:42Z</time>
      </trkpt>
      <trkpt lat="45.22657" lon="5.59396">
        <ele>1608</ele>
        <time>2007-05-21T07:22:55Z</time>
      </trkpt>
      <trkpt lat="45.22579" lon="5.59389">
        <ele>1610</ele>
        <time>2007-05-21T07:23:27Z</time>
      </trkpt>
      <trkpt lat="45.2254" lon="5.59395">
        <ele>1610</ele>
        <time>2007-05-21T07:23:42Z</time>
      </trkpt>
      <trkpt lat="45.22392" lon="5.5937">
        <ele>1611</ele>
        <time>2007-05-21T07:24:42Z</time>
      </trkpt>
      <trkpt lat="45.2235" lon="5.59379">
        <ele>1615</ele>
        <time>2007-05-21T07:24:59Z</time>
      </trkpt>
      <trkpt lat="45.22302" lon="5.5936">
        <ele>1616</ele>
        <time>2007-05-21T07:25:19Z</time>
      </trkpt>
      <trkpt lat="45.22271" lon="5.59336">
        <ele>1617</ele>
        <time>2007-05-21T07:25:33Z</time>
      </trkpt>
      <trkpt lat="45.22186" lon="5.59232">
        <ele>1603</ele>
        <time>2007-05-21T07:26:18Z</time>
      </trkpt>
      <trkpt lat="45.22105" lon="5.59248">
        <ele>1601</ele>
        <time>2007-05-21T07:26:51Z</time>
      </trkpt>
      <trkpt lat="45.22061" lon="5.59239">
        <ele>1600</ele>
        <time>2007-05-21T07:27:08Z</time>
      </trkpt>
      <trkpt lat="45.22004" lon="5.59257">
        <ele>1597</ele>
        <time>2007-05-21T07:27:32Z</time>
      </trkpt>
      <trkpt lat="45.21945" lon="5.59254">
        <ele>1596</ele>
        <time>2007-05-21T07:27:55Z</time>
      </trkpt>
      <trkpt lat="45.21923" lon="5.59264">
        <ele>1595</ele>
        <time>2007-05-21T07:28:04Z</time>
      </trkpt>
      <trkpt lat="45.21832" lon="5.59268">
        <ele>1597</ele>
        <time>2007-05-21T07:28:41Z</time>
      </trkpt>
      <trkpt lat="45.21813" lon="5.59281">
        <ele>1596</ele>
        <time>2007-05-21T07:28:49Z</time>
      </trkpt>
      <trkpt lat="45.21787" lon="5.59347">
        <ele>1588</ele>
        <time>2007-05-21T07:29:11Z</time>
      </trkpt>
      <trkpt lat="45.21746" lon="5.59416">
        <ele>1582</ele>
        <time>2007-05-21T07:29:36Z</time>
      </trkpt>
      <trkpt lat="45.21711" lon="5.5943">
        <ele>1580</ele>
        <time>2007-05-21T07:29:51Z</time>
      </trkpt>
      <trkpt lat="45.21674" lon="5.59403">
        <ele>1587</ele>
        <time>2007-05-21T07:30:08Z</time>
      </trkpt>
      <trkpt lat="45.21668" lon="5.5929">
        <ele>1597</ele>
        <time>2007-05-21T07:30:40Z</time>
      </trkpt>
      <trkpt lat="45.21638" lon="5.59226">
        <ele>1600</ele>
        <time>2007-05-21T07:31:01Z</time>
      </trkpt>
      <trkpt lat="45.21591" lon="5.59175">
        <ele>1604</ele>
        <time>2007-05-21T07:31:25Z</time>
      </trkpt>
      <trkpt lat="45.21566" lon="5.59158">
        <ele>1604</ele>
        <time>2007-05-21T07:31:36Z</time>
      </trkpt>
      <trkpt lat="45.21541" lon="5.59163">
        <ele>1607</ele>
        <time>2007-05-21T07:31:46Z</time>
      </trkpt>
      <trkpt lat="45.21513" lon="5.59154">
        <ele>1607</ele>
        <time>2007-05-21T07:31:58Z</time>
      </trkpt>
      <trkpt lat="45.21497" lon="5.59167">
        <ele>1611</ele>
        <time>2007-05-21T07:32:05Z</time>
      </trkpt>
      <trkpt lat="45.21463" lon="5.59142">
        <ele>1618</ele>
        <time>2007-05-21T07:32:20Z</time>
      </trkpt>
      <trkpt lat="45.21435" lon="5.59087">
        <ele>1622</ele>
        <time>2007-05-21T07:32:39Z</time>
      </trkpt>
      <trkpt lat="45.21311" lon="5.58999">
        <ele>1636</ele>
        <time>2007-05-21T07:33:35Z</time>
      </trkpt>
      <trkpt lat="45.21227" lon="5.59032">
        <ele>1638</ele>
        <time>2007-05-21T07:34:10Z</time>
      </trkpt>
      <trkpt lat="45.21171" lon="5.59029">
        <ele>1637</ele>
        <time>2007-05-21T07:34:33Z</time>
      </trkpt>
      <trkpt lat="45.21129" lon="5.59004">
        <ele>1635</ele>
        <time>2007-05-21T07:34:51Z</time>
      </trkpt>
      <trkpt lat="45.21116" lon="5.58984">
        <ele>1634</ele>
        <time>2007-05-21T07:34:58Z</time>
      </trkpt>
      <trkpt lat="45.21112" lon="5.58947">
        <ele>1632</ele>
        <time>2007-05-21T07:35:09Z</time>
      </trkpt>
      <trkpt lat="45.211" lon="5.58956">
        <ele>1629</ele>
        <time>2007-05-21T07:35:14Z</time>
      </trkpt>
      <trkpt lat="45.21" lon="5.58833">
        <ele>1614</ele>
        <time>2007-05-21T07:36:07Z</time>
      </trkpt>
      <trkpt lat="45.21037" lon="5.58891">
        <ele>1618</ele>
        <time>2007-05-21T07:36:29Z</time>
      </trkpt>
      <trkpt lat="45.21069" lon="5.5892">
        <ele>1623</ele>
        <time>2007-05-21T07:36:44Z</time>
      </trkpt>
      <trkpt lat="45.21096" lon="5.58958">
        <ele>1631</ele>
        <time>2007-05-21T07:37:00Z</time>
      </trkpt>
      <trkpt lat="45.21059" lon="5.59033">
        <ele>1625</ele>
        <time>2007-05-21T07:37:25Z</time>
      </trkpt>
      <trkpt lat="45.21016" lon="5.59066">
        <ele>1624</ele>
        <time>2007-05-21T07:37:45Z</time>
      </trkpt>
      <trkpt lat="45.20995" lon="5.59112">
        <ele>1624</ele>
        <time>2007-05-21T07:38:01Z</time>
      </trkpt>
      <trkpt lat="45.20991" lon="5.59167">
        <ele>1625</ele>
        <time>2007-05-21T07:38:16Z</time>
      </trkpt>
      <trkpt lat="45.20945" lon="5.59179">
        <ele>1626</ele>
        <time>2007-05-21T07:38:35Z</time>
      </trkpt>
      <trkpt lat="45.20901" lon="5.5913">
        <ele>1624</ele>
        <time>2007-05-21T07:38:57Z</time>
      </trkpt>
      <trkpt lat="45.20829" lon="5.5911">
        <ele>1622</ele>
        <time>2007-05-21T07:39:27Z</time>
      </trkpt>
      <trkpt lat="45.20739" lon="5.59158">
        <ele>1620</ele>
        <time>2007-05-21T07:40:05Z</time>
      </trkpt>
      <trkpt lat="45.20696" lon="5.59218">
        <ele>1619</ele>
        <time>2007-05-21T07:40:29Z</time>
      </trkpt>
      <trkpt lat="45.20608" lon="5.59219">
        <ele>1626</ele>
        <time>2007-05-21T07:41:05Z</time>
      </trkpt>
      <trkpt lat="45.2048" lon="5.59318">
        <ele>1629</ele>
        <time>2007-05-21T07:42:03Z</time>
      </trkpt>
      <trkpt lat="45.20385" lon="5.59305">
        <ele>1635</ele>
        <time>2007-05-21T07:42:41Z</time>
      </trkpt>
      <trkpt lat="45.20199" lon="5.59243">
        <ele>1639</ele>
        <time>2007-05-21T07:43:57Z</time>
      </trkpt>
      <trkpt lat="45.20065" lon="5.5922">
        <ele>1639</ele>
        <time>2007-05-21T07:44:52Z</time>
      </trkpt>
      <trkpt lat="45.19986" lon="5.59193">
        <ele>1640</ele>
        <time>2007-05-21T07:45:24Z</time>
      </trkpt>
      <trkpt lat="45.19879" lon="5.59182">
        <ele>1639</ele>
        <time>2007-05-21T07:46:07Z</time>
      </trkpt>
      <trkpt lat="45.19834" lon="5.59193">
        <ele>1640</ele>
        <time>2007-05-21T07:46:25Z</time>
      </trkpt>
      <trkpt lat="45.19812" lon="5.59184">
        <ele>1640</ele>
        <time>2007-05-21T07:46:34Z</time>
      </trkpt>
      <trkpt lat="45.19782" lon="5.59197">
        <ele>1641</ele>
        <time>2007-05-21T07:46:47Z</time>
      </trkpt>
      <trkpt lat="45.19691" lon="5.59174">
        <ele>1653</ele>
        <time>2007-05-21T07:47:24Z</time>
      </trkpt>
      <trkpt lat="45.19678" lon="5.59162">
        <ele>1658</ele>
        <time>2007-05-21T07:47:30Z</time>
      </trkpt>
      <trkpt lat="45.1959" lon="5.59176">
        <ele>1659</ele>
        <time>2007-05-21T07:48:06Z</time>
      </trkpt>
      <trkpt lat="45.19467" lon="5.59211">
        <ele>1660</ele>
        <time>2007-05-21T07:48:56Z</time>
      </trkpt>
      <trkpt lat="45.19431" lon="5.59238">
        <ele>1661</ele>
        <time>2007-05-21T07:49:13Z</time>
      </trkpt>
      <trkpt lat="45.19381" lon="5.59248">
        <ele>1661</ele>
        <time>2007-05-21T07:49:33Z</time>
      </trkpt>
      <trkpt lat="45.19379" lon="5.59261">
        <ele>1661</ele>
        <time>2007-05-21T07:49:36Z</time>
      </trkpt>
      <trkpt lat="45.19149" lon="5.59192">
        <ele>1668</ele>
        <time>2007-05-21T07:51:10Z</time>
      </trkpt>
      <trkpt lat="45.19107" lon="5.59169">
        <ele>1676</ele>
        <time>2007-05-21T07:51:28Z</time>
      </trkpt>
      <trkpt lat="45.1905" lon="5.59154">
        <ele>1683</ele>
        <time>2007-05-21T07:51:51Z</time>
      </trkpt>
      <trkpt lat="45.19054" lon="5.59156">
        <ele>1682</ele>
        <time>2007-05-21T07:51:54Z</time>
      </trkpt>
      <trkpt lat="45.19004" lon="5.59137">
        <ele>1690</ele>
        <time>2007-05-21T07:52:15Z</time>
      </trkpt>
      <trkpt lat="45.18885" lon="5.59144">
        <ele>1699</ele>
        <time>2007-05-21T07:53:02Z</time>
      </trkpt>
      <trkpt lat="45.18859" lon="5.59137">
        <ele>1703</ele>
        <time>2007-05-21T07:53:13Z</time>
      </trkpt>
      <trkpt lat="45.18815" lon="5.59152">
        <ele>1705</ele>
        <time>2007-05-21T07:53:31Z</time>
      </trkpt>
      <trkpt lat="45.18788" lon="5.59184">
        <ele>1706</ele>
        <time>2007-05-21T07:53:45Z</time>
      </trkpt>
      <trkpt lat="45.18746" lon="5.59201">
        <ele>1706</ele>
        <time>2007-05-21T07:54:03Z</time>
      </trkpt>
      <trkpt lat="45.18686" lon="5.59262">
        <ele>1708</ele>
        <time>2007-05-21T07:54:32Z</time>
      </trkpt>
      <trkpt lat="45.18655" lon="5.59254">
        <ele>1712</ele>
        <time>2007-05-21T07:54:45Z</time>
      </trkpt>
      <trkpt lat="45.18597" lon="5.59178">
        <ele>1710</ele>
        <time>2007-05-21T07:55:16Z</time>
      </trkpt>
      <trkpt lat="45.18566" lon="5.59148">
        <ele>1711</ele>
        <time>2007-05-21T07:55:31Z</time>
      </trkpt>
      <trkpt lat="45.18566" lon="5.59127">
        <ele>1712</ele>
        <time>2007-05-21T07:55:38Z</time>
      </trkpt>
      <trkpt lat="45.18484" lon="5.59039">
        <ele>1706</ele>
        <time>2007-05-21T07:56:19Z</time>
      </trkpt>
      <trkpt lat="45.18466" lon="5.58987">
        <ele>1703</ele>
        <time>2007-05-21T07:56:35Z</time>
      </trkpt>
      <trkpt lat="45.18384" lon="5.58904">
        <ele>1694</ele>
        <time>2007-05-21T07:57:15Z</time>
      </trkpt>
      <trkpt lat="45.18357" lon="5.58857">
        <ele>1686</ele>
        <time>2007-05-21T07:57:33Z</time>
      </trkpt>
      <trkpt lat="45.18319" lon="5.58811">
        <ele>1681</ele>
        <time>2007-05-21T07:57:53Z</time>
      </trkpt>
      <trkpt lat="45.18264" lon="5.58792">
        <ele>1679</ele>
        <time>2007-05-21T07:58:15Z</time>
      </trkpt>
      <trkpt lat="45.18227" lon="5.58752">
        <ele>1671</ele>
        <time>2007-05-21T07:58:34Z</time>
      </trkpt>
      <trkpt lat="45.18202" lon="5.58742">
        <ele>1669</ele>
        <time>2007-05-21T07:58:44Z</time>
      </trkpt>
      <trkpt lat="45.17996" lon="5.58603">
        <ele>1656</ele>
        <time>2007-05-21T08:00:16Z</time>
      </trkpt>
      <trkpt lat="45.17907" lon="5.58575">
        <ele>1663</ele>
        <time>2007-05-21T08:00:53Z</time>
      </trkpt>
      <trkpt lat="45.17868" lon="5.58573">
        <ele>1667</ele>
        <time>2007-05-21T08:01:08Z</time>
      </trkpt>
      <trkpt lat="45.17853" lon="5.58598">
        <ele>1670</ele>
        <time>2007-05-21T08:01:17Z</time>
      </trkpt>
      <trkpt lat="45.17796" lon="5.58625">
        <ele>1676</ele>
        <time>2007-05-21T08:01:42Z</time>
      </trkpt>
      <trkpt lat="45.17797" lon="5.58635">
        <ele>1675</ele>
        <time>2007-05-21T08:01:44Z</time>
      </trkpt>
      <trkpt lat="45.17695" lon="5.58651">
        <ele>1680</ele>
        <time>2007-05-21T08:02:26Z</time>
      </trkpt>
      <trkpt lat="45.17663" lon="5.58647">
        <ele>1684</ele>
        <time>2007-05-21T08:02:38Z</time>
      </trkpt>
      <trkpt lat="45.17589" lon="5.58596">
        <ele>1690</ele>
        <time>2007-05-21T08:03:12Z</time>
      </trkpt>
      <trkpt lat="45.17535" lon="5.58574">
        <ele>1690</ele>
        <time>2007-05-21T08:03:34Z</time>
      </trkpt>
      <trkpt lat="45.17515" lon="5.58552">
        <ele>1688</ele>
        <time>2007-05-21T08:03:44Z</time>
      </trkpt>
      <trkpt lat="45.17446" lon="5.58543">
        <ele>1686</ele>
        <time>2007-05-21T08:04:12Z</time>
      </trkpt>
      <trkpt lat="45.17363" lon="5.5847">
        <ele>1675</ele>
        <time>2007-05-21T08:04:51Z</time>
      </trkpt>
      <trkpt lat="45.17346" lon="5.58468">
        <ele>1673</ele>
        <time>2007-05-21T08:04:58Z</time>
      </trkpt>
      <trkpt lat="45.17315" lon="5.58445">
        <ele>1664</ele>
        <time>2007-05-21T08:05:12Z</time>
      </trkpt>
      <trkpt lat="45.17291" lon="5.584">
        <ele>1658</ele>
        <time>2007-05-21T08:05:28Z</time>
      </trkpt>
    </trkseg>
  </trk>
  <trk>
    <name><![CDATA[20181113161136-3zz2Q]]></name>
    <trkseg>
      <trkpt lat="45.1728" lon="5.58395">
        <ele>1649</ele>
        <time>2018-11-14T01:38:21Z</time>
      </trkpt>
      <trkpt lat="45.17257" lon="5.58394">
        <ele>1644</ele>
        <time>2018-11-14T01:39:21Z</time>
      </trkpt>
      <trkpt lat="45.17249" lon="5.58389">
        <ele>1642</ele>
        <time>2018-11-14T01:40:21Z</time>
      </trkpt>
      <trkpt lat="45.17241" lon="5.58389">
        <ele>1641</ele>
        <time>2018-11-14T01:41:21Z</time>
      </trkpt>
      <trkpt lat="45.17226" lon="5.58383">
        <ele>1638</ele>
        <time>2018-11-14T01:42:21Z</time>
      </trkpt>
      <trkpt lat="45.17203" lon="5.58385">
        <ele>1633</ele>
        <time>2018-11-14T01:43:21Z</time>
      </trkpt>
      <trkpt lat="45.17188" lon="5.58393">
        <ele>1630</ele>
        <time>2018-11-14T01:44:21Z</time>
      </trkpt>
      <trkpt lat="45.17162" lon="5.58393">
        <ele>1625</ele>
        <time>2018-11-14T01:45:21Z</time>
      </trkpt>
      <trkpt lat="45.17148" lon="5.58381">
        <ele>1625</ele>
        <time>2018-11-14T01:46:21Z</time>
      </trkpt>
      <trkpt lat="45.17114" lon="5.58369">
        <ele>1627</ele>
        <time>2018-11-14T01:47:21Z</time>
      </trkpt>
      <trkpt lat="45.1704" lon="5.58348">
        <ele>1641</ele>
        <time>2018-11-14T01:48:21Z</time>
      </trkpt>
      <trkpt lat="45.17013" lon="5.58352">
        <ele>1646</ele>
        <time>2018-11-14T01:49:21Z</time>
      </trkpt>
      <trkpt lat="45.16994" lon="5.58357">
        <ele>1649</ele>
        <time>2018-11-14T01:50:21Z</time>
      </trkpt>
      <trkpt lat="45.16985" lon="5.58368">
        <ele>1648</ele>
        <time>2018-11-14T01:51:21Z</time>
      </trkpt>
      <trkpt lat="45.16974" lon="5.58374">
        <ele>1647</ele>
        <time>2018-11-14T01:52:21Z</time>
      </trkpt>
      <trkpt lat="45.1695" lon="5.5837">
        <ele>1649</ele>
        <time>2018-11-14T01:53:21Z</time>
      </trkpt>
      <trkpt lat="45.16905" lon="5.58358">
        <ele>1650</ele>
        <time>2018-11-14T01:54:21Z</time>
      </trkpt>
      <trkpt lat="45.16894" lon="5.5835">
        <ele>1650</ele>
        <time>2018-11-14T01:55:21Z</time>
      </trkpt>
      <trkpt lat="45.16872" lon="5.58345">
        <ele>1649</ele>
        <time>2018-11-14T01:56:21Z</time>
      </trkpt>
      <trkpt lat="45.16872" lon="5.58345">
        <ele>1649</ele>
        <time>2018-11-14T01:57:21Z</time>
      </trkpt>
      <trkpt lat="45.16833" lon="5.58331">
        <ele>1648</ele>
        <time>2018-11-14T01:58:21Z</time>
      </trkpt>
      <trkpt lat="45.16827" lon="5.58331">
        <ele>1648</ele>
        <time>2018-11-14T01:59:21Z</time>
      </trkpt>
      <trkpt lat="45.16814" lon="5.58336">
        <ele>1646</ele>
        <time>2018-11-14T02:00:21Z</time>
      </trkpt>
      <trkpt lat="45.16796" lon="5.58333">
        <ele>1645</ele>
        <time>2018-11-14T02:01:21Z</time>
      </trkpt>
      <trkpt lat="45.16748" lon="5.58312">
        <ele>1640</ele>
        <time>2018-11-14T02:02:21Z</time>
      </trkpt>
      <trkpt lat="45.16738" lon="5.58309">
        <ele>1640</ele>
        <time>2018-11-14T02:03:21Z</time>
      </trkpt>
      <trkpt lat="45.16729" lon="5.58308">
        <ele>1640</ele>
        <time>2018-11-14T02:04:21Z</time>
      </trkpt>
      <trkpt lat="45.16718" lon="5.5831">
        <ele>1640</ele>
        <time>2018-11-14T02:05:21Z</time>
      </trkpt>
      <trkpt lat="45.16701" lon="5.58307">
        <ele>1640</ele>
        <time>2018-11-14T02:06:21Z</time>
      </trkpt>
      <trkpt lat="45.16689" lon="5.58308">
        <ele>1641</ele>
        <time>2018-11-14T02:07:21Z</time>
      </trkpt>
      <trkpt lat="45.16686" lon="5.58304">
        <ele>1641</ele>
        <time>2018-11-14T02:08:21Z</time>
      </trkpt>
      <trkpt lat="45.16651" lon="5.58293">
        <ele>1641</ele>
        <time>2018-11-14T02:09:21Z</time>
      </trkpt>
      <trkpt lat="45.166" lon="5.58282">
        <ele>1644</ele>
        <time>2018-11-14T02:10:21Z</time>
      </trkpt>
      <trkpt lat="45.16592" lon="5.58278">
        <ele>1645</ele>
        <time>2018-11-14T02:11:21Z</time>
      </trkpt>
      <trkpt lat="45.16576" lon="5.58274">
        <ele>1646</ele>
        <time>2018-11-14T02:12:21Z</time>
      </trkpt>
      <trkpt lat="45.16552" lon="5.58266">
        <ele>1647</ele>
        <time>2018-11-14T02:13:21Z</time>
      </trkpt>
      <trkpt lat="45.1654" lon="5.58258">
        <ele>1648</ele>
        <time>2018-11-14T02:14:21Z</time>
      </trkpt>
      <trkpt lat="45.16494" lon="5.58244">
        <ele>1647</ele>
        <time>2018-11-14T02:15:21Z</time>
      </trkpt>
      <trkpt lat="45.1646" lon="5.58224">
        <ele>1644</ele>
        <time>2018-11-14T02:16:21Z</time>
      </trkpt>
      <trkpt lat="45.16446" lon="5.58211">
        <ele>1644</ele>
        <time>2018-11-14T02:17:21Z</time>
      </trkpt>
      <trkpt lat="45.16403" lon="5.58157">
        <ele>1647</ele>
        <time>2018-11-14T02:18:21Z</time>
      </trkpt>
      <trkpt lat="45.16389" lon="5.58142">
        <ele>1645</ele>
        <time>2018-11-14T02:19:21Z</time>
      </trkpt>
      <trkpt lat="45.16382" lon="5.58117">
        <ele>1646</ele>
        <time>2018-11-14T02:20:21Z</time>
      </trkpt>
      <trkpt lat="45.16372" lon="5.58103">
        <ele>1648</ele>
        <time>2018-11-14T02:21:21Z</time>
      </trkpt>
      <trkpt lat="45.16362" lon="5.58095">
        <ele>1650</ele>
        <time>2018-11-14T02:22:21Z</time>
      </trkpt>
      <trkpt lat="45.16355" lon="5.58088">
        <ele>1653</ele>
        <time>2018-11-14T02:23:21Z</time>
      </trkpt>
      <trkpt lat="45.1634" lon="5.58079">
        <ele>1657</ele>
        <time>2018-11-14T02:24:21Z</time>
      </trkpt>
      <trkpt lat="45.1633" lon="5.58078">
        <ele>1658</ele>
        <time>2018-11-14T02:25:21Z</time>
      </trkpt>
      <trkpt lat="45.16305" lon="5.58065">
        <ele>1658</ele>
        <time>2018-11-14T02:26:21Z</time>
      </trkpt>
      <trkpt lat="45.16253" lon="5.58061">
        <ele>1659</ele>
        <time>2018-11-14T02:27:21Z</time>
      </trkpt>
      <trkpt lat="45.16202" lon="5.58052">
        <ele>1659</ele>
        <time>2018-11-14T02:28:21Z</time>
      </trkpt>
      <trkpt lat="45.16179" lon="5.5804">
        <ele>1659</ele>
        <time>2018-11-14T02:29:21Z</time>
      </trkpt>
      <trkpt lat="45.16172" lon="5.58031">
        <ele>1660</ele>
        <time>2018-11-14T02:30:21Z</time>
      </trkpt>
      <trkpt lat="45.16163" lon="5.58027">
        <ele>1660</ele>
        <time>2018-11-14T02:31:21Z</time>
      </trkpt>
      <trkpt lat="45.16124" lon="5.58036">
        <ele>1658</ele>
        <time>2018-11-14T02:32:21Z</time>
      </trkpt>
      <trkpt lat="45.16098" lon="5.58045">
        <ele>1658</ele>
        <time>2018-11-14T02:33:21Z</time>
      </trkpt>
      <trkpt lat="45.16093" lon="5.58045">
        <ele>1658</ele>
        <time>2018-11-14T02:34:21Z</time>
      </trkpt>
      <trkpt lat="45.16078" lon="5.58037">
        <ele>1657</ele>
        <time>2018-11-14T02:35:21Z</time>
      </trkpt>
      <trkpt lat="45.16042" lon="5.5803">
        <ele>1656</ele>
        <time>2018-11-14T02:36:21Z</time>
      </trkpt>
      <trkpt lat="45.16022" lon="5.58023">
        <ele>1655</ele>
        <time>2018-11-14T02:37:21Z</time>
      </trkpt>
      <trkpt lat="45.16005" lon="5.58021">
        <ele>1654</ele>
        <time>2018-11-14T02:38:21Z</time>
      </trkpt>
      <trkpt lat="45.15961" lon="5.57998">
        <ele>1653</ele>
        <time>2018-11-14T02:39:21Z</time>
      </trkpt>
      <trkpt lat="45.15952" lon="5.5799">
        <ele>1652</ele>
        <time>2018-11-14T02:40:21Z</time>
      </trkpt>
      <trkpt lat="45.1593" lon="5.57981">
        <ele>1651</ele>
        <time>2018-11-14T02:41:21Z</time>
      </trkpt>
      <trkpt lat="45.15925" lon="5.57976">
        <ele>1651</ele>
        <time>2018-11-14T02:42:21Z</time>
      </trkpt>
      <trkpt lat="45.1592" lon="5.57963">
        <ele>1651</ele>
        <time>2018-11-14T02:43:21Z</time>
      </trkpt>
      <trkpt lat="45.15904" lon="5.57942">
        <ele>1652</ele>
        <time>2018-11-14T02:44:21Z</time>
      </trkpt>
      <trkpt lat="45.15869" lon="5.57911">
        <ele>1652</ele>
        <time>2018-11-14T02:45:21Z</time>
      </trkpt>
      <trkpt lat="45.15853" lon="5.57906">
        <ele>1651</ele>
        <time>2018-11-14T02:46:21Z</time>
      </trkpt>
      <trkpt lat="45.15843" lon="5.57897">
        <ele>1650</ele>
        <time>2018-11-14T02:47:21Z</time>
      </trkpt>
      <trkpt lat="45.15834" lon="5.57892">
        <ele>1650</ele>
        <time>2018-11-14T02:48:21Z</time>
      </trkpt>
      <trkpt lat="45.15806" lon="5.57886">
        <ele>1647</ele>
        <time>2018-11-14T02:49:21Z</time>
      </trkpt>
      <trkpt lat="45.15761" lon="5.57863">
        <ele>1643</ele>
        <time>2018-11-14T02:50:21Z</time>
      </trkpt>
      <trkpt lat="45.15752" lon="5.5786">
        <ele>1643</ele>
        <time>2018-11-14T02:51:21Z</time>
      </trkpt>
      <trkpt lat="45.15736" lon="5.57857">
        <ele>1642</ele>
        <time>2018-11-14T02:52:21Z</time>
      </trkpt>
      <trkpt lat="45.15721" lon="5.57857">
        <ele>1641</ele>
        <time>2018-11-14T02:53:21Z</time>
      </trkpt>
      <trkpt lat="45.15651" lon="5.57867">
        <ele>1637</ele>
        <time>2018-11-14T02:54:21Z</time>
      </trkpt>
      <trkpt lat="45.15651" lon="5.57867">
        <ele>1637</ele>
        <time>2018-11-14T02:55:21Z</time>
      </trkpt>
      <trkpt lat="45.15626" lon="5.57869">
        <ele>1634</ele>
        <time>2018-11-14T02:56:21Z</time>
      </trkpt>
      <trkpt lat="45.15611" lon="5.57875">
        <ele>1632</ele>
        <time>2018-11-14T02:57:21Z</time>
      </trkpt>
      <trkpt lat="45.15599" lon="5.57876">
        <ele>1631</ele>
        <time>2018-11-14T02:58:21Z</time>
      </trkpt>
      <trkpt lat="45.15567" lon="5.57858">
        <ele>1630</ele>
        <time>2018-11-14T02:59:21Z</time>
      </trkpt>
      <trkpt lat="45.15509" lon="5.57801">
        <ele>1631</ele>
        <time>2018-11-14T03:00:21Z</time>
      </trkpt>
      <trkpt lat="45.15483" lon="5.57781">
        <ele>1631</ele>
        <time>2018-11-14T03:01:21Z</time>
      </trkpt>
      <trkpt lat="45.15465" lon="5.57776">
        <ele>1631</ele>
        <time>2018-11-14T03:02:21Z</time>
      </trkpt>
      <trkpt lat="45.15447" lon="5.57777">
        <ele>1630</ele>
        <time>2018-11-14T03:03:21Z</time>
      </trkpt>
      <trkpt lat="45.15405" lon="5.57788">
        <ele>1628</ele>
        <time>2018-11-14T03:04:21Z</time>
      </trkpt>
      <trkpt lat="45.15375" lon="5.57787">
        <ele>1625</ele>
        <time>2018-11-14T03:05:21Z</time>
      </trkpt>
      <trkpt lat="45.1536" lon="5.57784">
        <ele>1624</ele>
        <time>2018-11-14T03:06:21Z</time>
      </trkpt>
      <trkpt lat="45.153" lon="5.57755">
        <ele>1619</ele>
        <time>2018-11-14T03:07:21Z</time>
      </trkpt>
      <trkpt lat="45.15277" lon="5.57753">
        <ele>1617</ele>
        <time>2018-11-14T03:08:21Z</time>
      </trkpt>
      <trkpt lat="45.15262" lon="5.57749">
        <ele>1616</ele>
        <time>2018-11-14T03:09:21Z</time>
      </trkpt>
      <trkpt lat="45.15231" lon="5.57735">
        <ele>1611</ele>
        <time>2018-11-14T03:10:21Z</time>
      </trkpt>
      <trkpt lat="45.15187" lon="5.57719">
        <ele>1604</ele>
        <time>2018-11-14T03:11:21Z</time>
      </trkpt>
      <trkpt lat="45.15161" lon="5.577">
        <ele>1600</ele>
        <time>2018-11-14T03:12:21Z</time>
      </trkpt>
      <trkpt lat="45.15124" lon="5.57681">
        <ele>1593</ele>
        <time>2018-11-14T03:13:21Z</time>
      </trkpt>
      <trkpt lat="45.15106" lon="5.57674">
        <ele>1590</ele>
        <time>2018-11-14T03:14:21Z</time>
      </trkpt>
      <trkpt lat="45.15083" lon="5.57675">
        <ele>1586</ele>
        <time>2018-11-14T03:15:21Z</time>
      </trkpt>
      <trkpt lat="45.15059" lon="5.5768">
        <ele>1584</ele>
        <time>2018-11-14T03:16:21Z</time>
      </trkpt>
      <trkpt lat="45.15045" lon="5.57688">
        <ele>1582</ele>
        <time>2018-11-14T03:17:21Z</time>
      </trkpt>
      <trkpt lat="45.15041" lon="5.57688">
        <ele>1582</ele>
        <time>2018-11-14T03:18:21Z</time>
      </trkpt>
      <trkpt lat="45.15022" lon="5.57681">
        <ele>1580</ele>
        <time>2018-11-14T03:19:21Z</time>
      </trkpt>
      <trkpt lat="45.14992" lon="5.57685">
        <ele>1578</ele>
        <time>2018-11-14T03:20:21Z</time>
      </trkpt>
      <trkpt lat="45.1497" lon="5.57684">
        <ele>1577</ele>
        <time>2018-11-14T03:21:21Z</time>
      </trkpt>
      <trkpt lat="45.14942" lon="5.57664">
        <ele>1578</ele>
        <time>2018-11-14T03:22:21Z</time>
      </trkpt>
      <trkpt lat="45.14896" lon="5.57651">
        <ele>1574</ele>
        <time>2018-11-14T03:23:21Z</time>
      </trkpt>
      <trkpt lat="45.14867" lon="5.57636">
        <ele>1570</ele>
        <time>2018-11-14T03:24:21Z</time>
      </trkpt>
      <trkpt lat="45.14858" lon="5.57629">
        <ele>1569</ele>
        <time>2018-11-14T03:25:21Z</time>
      </trkpt>
      <trkpt lat="45.14846" lon="5.57602">
        <ele>1569</ele>
        <time>2018-11-14T03:26:21Z</time>
      </trkpt>
      <trkpt lat="45.14841" lon="5.57595">
        <ele>1568</ele>
        <time>2018-11-14T03:27:21Z</time>
      </trkpt>
      <trkpt lat="45.14835" lon="5.57591">
        <ele>1568</ele>
        <time>2018-11-14T03:28:21Z</time>
      </trkpt>
      <trkpt lat="45.1483" lon="5.5759">
        <ele>1568</ele>
        <time>2018-11-14T03:29:21Z</time>
      </trkpt>
      <trkpt lat="45.14815" lon="5.57593">
        <ele>1566</ele>
        <time>2018-11-14T03:30:21Z</time>
      </trkpt>
      <trkpt lat="45.14788" lon="5.57582">
        <ele>1564</ele>
        <time>2018-11-14T03:31:21Z</time>
      </trkpt>
      <trkpt lat="45.14753" lon="5.57572">
        <ele>1560</ele>
        <time>2018-11-14T03:32:21Z</time>
      </trkpt>
      <trkpt lat="45.14731" lon="5.5757">
        <ele>1559</ele>
        <time>2018-11-14T03:33:21Z</time>
      </trkpt>
      <trkpt lat="45.14703" lon="5.57571">
        <ele>1559</ele>
        <time>2018-11-14T03:34:21Z</time>
      </trkpt>
      <trkpt lat="45.14674" lon="5.5757">
        <ele>1558</ele>
        <time>2018-11-14T03:35:21Z</time>
      </trkpt>
      <trkpt lat="45.14656" lon="5.57562">
        <ele>1557</ele>
        <time>2018-11-14T03:36:21Z</time>
      </trkpt>
      <trkpt lat="45.14646" lon="5.57561">
        <ele>1556</ele>
        <time>2018-11-14T03:37:21Z</time>
      </trkpt>
      <trkpt lat="45.14617" lon="5.57565">
        <ele>1554</ele>
        <time>2018-11-14T03:38:21Z</time>
      </trkpt>
      <trkpt lat="45.14599" lon="5.57562">
        <ele>1552</ele>
        <time>2018-11-14T03:39:21Z</time>
      </trkpt>
      <trkpt lat="45.14589" lon="5.57565">
        <ele>1551</ele>
        <time>2018-11-14T03:40:21Z</time>
      </trkpt>
      <trkpt lat="45.14576" lon="5.57556">
        <ele>1549</ele>
        <time>2018-11-14T03:41:21Z</time>
      </trkpt>
      <trkpt lat="45.14563" lon="5.57538">
        <ele>1547</ele>
        <time>2018-11-14T03:42:21Z</time>
      </trkpt>
      <trkpt lat="45.14545" lon="5.57526">
        <ele>1544</ele>
        <time>2018-11-14T03:43:21Z</time>
      </trkpt>
      <trkpt lat="45.14512" lon="5.57528">
        <ele>1541</ele>
        <time>2018-11-14T03:44:21Z</time>
      </trkpt>
      <trkpt lat="45.14499" lon="5.57523">
        <ele>1540</ele>
        <time>2018-11-14T03:45:21Z</time>
      </trkpt>
      <trkpt lat="45.14487" lon="5.57514">
        <ele>1538</ele>
        <time>2018-11-14T03:46:21Z</time>
      </trkpt>
      <trkpt lat="45.14471" lon="5.5751">
        <ele>1536</ele>
        <time>2018-11-14T03:47:21Z</time>
      </trkpt>
      <trkpt lat="45.14443" lon="5.57528">
        <ele>1532</ele>
        <time>2018-11-14T03:48:21Z</time>
      </trkpt>
      <trkpt lat="45.14396" lon="5.57545">
        <ele>1526</ele>
        <time>2018-11-14T03:49:21Z</time>
      </trkpt>
      <trkpt lat="45.14337" lon="5.5756">
        <ele>1518</ele>
        <time>2018-11-14T03:50:21Z</time>
      </trkpt>
      <trkpt lat="45.14287" lon="5.57556">
        <ele>1510</ele>
        <time>2018-11-14T03:51:21Z</time>
      </trkpt>
      <trkpt lat="45.14252" lon="5.57543">
        <ele>1505</ele>
        <time>2018-11-14T03:52:21Z</time>
      </trkpt>
      <trkpt lat="45.14238" lon="5.57533">
        <ele>1504</ele>
        <time>2018-11-14T03:53:21Z</time>
      </trkpt>
      <trkpt lat="45.14203" lon="5.575">
        <ele>1503</ele>
        <time>2018-11-14T03:54:21Z</time>
      </trkpt>
      <trkpt lat="45.14171" lon="5.57492">
        <ele>1500</ele>
        <time>2018-11-14T03:55:21Z</time>
      </trkpt>
      <trkpt lat="45.14079" lon="5.57466">
        <ele>1491</ele>
        <time>2018-11-14T03:56:21Z</time>
      </trkpt>
      <trkpt lat="45.14073" lon="5.5746">
        <ele>1490</ele>
        <time>2018-11-14T03:57:21Z</time>
      </trkpt>
      <trkpt lat="45.14039" lon="5.57457">
        <ele>1485</ele>
        <time>2018-11-14T03:58:21Z</time>
      </trkpt>
      <trkpt lat="45.1403" lon="5.57448">
        <ele>1485</ele>
        <time>2018-11-14T03:59:21Z</time>
      </trkpt>
      <trkpt lat="45.14026" lon="5.57437">
        <ele>1485</ele>
        <time>2018-11-14T04:00:21Z</time>
      </trkpt>
      <trkpt lat="45.1402" lon="5.57435">
        <ele>1485</ele>
        <time>2018-11-14T04:01:21Z</time>
      </trkpt>
      <trkpt lat="45.1402" lon="5.57435">
        <ele>1485</ele>
        <time>2018-11-14T04:02:21Z</time>
      </trkpt>
      <trkpt lat="45.14013" lon="5.57432">
        <ele>1484</ele>
        <time>2018-11-14T04:03:21Z</time>
      </trkpt>
      <trkpt lat="45.13994" lon="5.57435">
        <ele>1481</ele>
        <time>2018-11-14T04:04:21Z</time>
      </trkpt>
      <trkpt lat="45.13963" lon="5.57427">
        <ele>1475</ele>
        <time>2018-11-14T04:05:21Z</time>
      </trkpt>
      <trkpt lat="45.13945" lon="5.57434">
        <ele>1469</ele>
        <time>2018-11-14T04:06:21Z</time>
      </trkpt>
      <trkpt lat="45.13932" lon="5.57429">
        <ele>1467</ele>
        <time>2018-11-14T04:07:21Z</time>
      </trkpt>
      <trkpt lat="45.13912" lon="5.57431">
        <ele>1462</ele>
        <time>2018-11-14T04:08:21Z</time>
      </trkpt>
      <trkpt lat="45.13876" lon="5.57412">
        <ele>1459</ele>
        <time>2018-11-14T04:09:21Z</time>
      </trkpt>
      <trkpt lat="45.13861" lon="5.57406">
        <ele>1456</ele>
        <time>2018-11-14T04:10:21Z</time>
      </trkpt>
      <trkpt lat="45.1384" lon="5.57406">
        <ele>1451</ele>
        <time>2018-11-14T04:11:21Z</time>
      </trkpt>
      <trkpt lat="45.13799" lon="5.57419">
        <ele>1440</ele>
        <time>2018-11-14T04:12:21Z</time>
      </trkpt>
      <trkpt lat="45.13783" lon="5.57419">
        <ele>1437</ele>
        <time>2018-11-14T04:13:21Z</time>
      </trkpt>
      <trkpt lat="45.13769" lon="5.57421">
        <ele>1433</ele>
        <time>2018-11-14T04:14:21Z</time>
      </trkpt>
      <trkpt lat="45.13757" lon="5.5741">
        <ele>1433</ele>
        <time>2018-11-14T04:15:21Z</time>
      </trkpt>
      <trkpt lat="45.13749" lon="5.57412">
        <ele>1431</ele>
        <time>2018-11-14T04:16:21Z</time>
      </trkpt>
      <trkpt lat="45.1375" lon="5.57365">
        <ele>1437</ele>
        <time>2018-11-14T04:17:21Z</time>
      </trkpt>
      <trkpt lat="45.13677" lon="5.5727">
        <ele>1426</ele>
        <time>2018-11-14T04:18:21Z</time>
      </trkpt>
      <trkpt lat="45.13628" lon="5.57217">
        <ele>1417</ele>
        <time>2018-11-14T04:19:21Z</time>
      </trkpt>
      <trkpt lat="45.13479" lon="5.57088">
        <ele>1390</ele>
        <time>2018-11-14T04:20:21Z</time>
      </trkpt>
      <trkpt lat="45.13416" lon="5.57045">
        <ele>1377</ele>
        <time>2018-11-14T04:21:21Z</time>
      </trkpt>
      <trkpt lat="45.13381" lon="5.56976">
        <ele>1370</ele>
        <time>2018-11-14T04:22:21Z</time>
      </trkpt>
      <trkpt lat="45.13339" lon="5.56918">
        <ele>1356</ele>
        <time>2018-11-14T04:23:21Z</time>
      </trkpt>
      <trkpt lat="45.13315" lon="5.56865">
        <ele>1348</ele>
        <time>2018-11-14T04:24:21Z</time>
      </trkpt>
      <trkpt lat="45.13304" lon="5.56794">
        <ele>1338</ele>
        <time>2018-11-14T04:25:21Z</time>
      </trkpt>
      <trkpt lat="45.13272" lon="5.5674">
        <ele>1327</ele>
        <time>2018-11-14T04:26:21Z</time>
      </trkpt>
      <trkpt lat="45.13262" lon="5.56703">
        <ele>1320</ele>
        <time>2018-11-14T04:27:21Z</time>
      </trkpt>
      <trkpt lat="45.1323" lon="5.56639">
        <ele>1309</ele>
        <time>2018-11-14T04:28:21Z</time>
      </trkpt>
      <trkpt lat="45.13167" lon="5.56604">
        <ele>1297</ele>
        <time>2018-11-14T04:29:21Z</time>
      </trkpt>
      <trkpt lat="45.13147" lon="5.56586">
        <ele>1295</ele>
        <time>2018-11-14T04:30:21Z</time>
      </trkpt>
      <trkpt lat="45.13131" lon="5.56545">
        <ele>1291</ele>
        <time>2018-11-14T04:31:21Z</time>
      </trkpt>
      <trkpt lat="45.13136" lon="5.56449">
        <ele>1280</ele>
        <time>2018-11-14T04:32:21Z</time>
      </trkpt>
      <trkpt lat="45.13116" lon="5.56297">
        <ele>1258</ele>
        <time>2018-11-14T04:33:21Z</time>
      </trkpt>
      <trkpt lat="45.13094" lon="5.56209">
        <ele>1244</ele>
        <time>2018-11-14T04:34:21Z</time>
      </trkpt>
      <trkpt lat="45.13086" lon="5.562">
        <ele>1243</ele>
        <time>2018-11-14T04:35:21Z</time>
      </trkpt>
      <trkpt lat="45.13071" lon="5.56113">
        <ele>1236</ele>
        <time>2018-11-14T04:36:21Z</time>
      </trkpt>
      <trkpt lat="45.13071" lon="5.56113">
        <ele>1236</ele>
        <time>2018-11-14T04:37:21Z</time>
      </trkpt>
      <trkpt lat="45.13065" lon="5.56079">
        <ele>1234</ele>
        <time>2018-11-14T04:38:21Z</time>
      </trkpt>
      <trkpt lat="45.13048" lon="5.56022">
        <ele>1229</ele>
        <time>2018-11-14T04:39:21Z</time>
      </trkpt>
      <trkpt lat="45.13046" lon="5.56001">
        <ele>1227</ele>
        <time>2018-11-14T04:40:21Z</time>
      </trkpt>
      <trkpt lat="45.13017" lon="5.55993">
        <ele>1227</ele>
        <time>2018-11-14T04:41:21Z</time>
      </trkpt>
      <trkpt lat="45.12987" lon="5.55997">
        <ele>1226</ele>
        <time>2018-11-14T04:42:21Z</time>
      </trkpt>
      <trkpt lat="45.12976" lon="5.55986">
        <ele>1227</ele>
        <time>2018-11-14T04:43:21Z</time>
      </trkpt>
      <trkpt lat="45.1287" lon="5.55991">
        <ele>1225</ele>
        <time>2018-11-14T04:44:21Z</time>
      </trkpt>
      <trkpt lat="45.12796" lon="5.55978">
        <ele>1220</ele>
        <time>2018-11-14T04:45:21Z</time>
      </trkpt>
      <trkpt lat="45.12754" lon="5.55968">
        <ele>1216</ele>
        <time>2018-11-14T04:46:21Z</time>
      </trkpt>
      <trkpt lat="45.12735" lon="5.55961">
        <ele>1216</ele>
        <time>2018-11-14T04:47:21Z</time>
      </trkpt>
      <trkpt lat="45.12666" lon="5.55926">
        <ele>1212</ele>
        <time>2018-11-14T04:48:21Z</time>
      </trkpt>
      <trkpt lat="45.12656" lon="5.55923">
        <ele>1212</ele>
        <time>2018-11-14T04:49:21Z</time>
      </trkpt>
      <trkpt lat="45.12635" lon="5.55923">
        <ele>1212</ele>
        <time>2018-11-14T04:50:21Z</time>
      </trkpt>
      <trkpt lat="45.12601" lon="5.55931">
        <ele>1212</ele>
        <time>2018-11-14T04:51:21Z</time>
      </trkpt>
      <trkpt lat="45.12591" lon="5.55937">
        <ele>1212</ele>
        <time>2018-11-14T04:52:21Z</time>
      </trkpt>
      <trkpt lat="45.12591" lon="5.55937">
        <ele>1212</ele>
        <time>2018-11-14T04:53:21Z</time>
      </trkpt>
      <trkpt lat="45.12576" lon="5.55946">
        <ele>1211</ele>
        <time>2018-11-14T04:54:21Z</time>
      </trkpt>
      <trkpt lat="45.12568" lon="5.55953">
        <ele>1211</ele>
        <time>2018-11-14T04:55:21Z</time>
      </trkpt>
      <trkpt lat="45.1252" lon="5.56018">
        <ele>1204</ele>
        <time>2018-11-14T04:56:21Z</time>
      </trkpt>
      <trkpt lat="45.12456" lon="5.56097">
        <ele>1195</ele>
        <time>2018-11-14T04:57:21Z</time>
      </trkpt>
      <trkpt lat="45.12435" lon="5.56093">
        <ele>1193</ele>
        <time>2018-11-14T04:58:21Z</time>
      </trkpt>
      <trkpt lat="45.12429" lon="5.56075">
        <ele>1194</ele>
        <time>2018-11-14T04:59:21Z</time>
      </trkpt>
      <trkpt lat="45.12407" lon="5.56037">
        <ele>1196</ele>
        <time>2018-11-14T05:00:21Z</time>
      </trkpt>
      <trkpt lat="45.12358" lon="5.55976">
        <ele>1200</ele>
        <time>2018-11-14T05:01:21Z</time>
      </trkpt>
      <trkpt lat="45.12363" lon="5.55927">
        <ele>1205</ele>
        <time>2018-11-14T05:02:21Z</time>
      </trkpt>
      <trkpt lat="45.12382" lon="5.55879">
        <ele>1210</ele>
        <time>2018-11-14T05:03:21Z</time>
      </trkpt>
      <trkpt lat="45.12391" lon="5.55842">
        <ele>1214</ele>
        <time>2018-11-14T05:04:21Z</time>
      </trkpt>
      <trkpt lat="45.12404" lon="5.558">
        <ele>1217</ele>
        <time>2018-11-14T05:05:21Z</time>
      </trkpt>
      <trkpt lat="45.12451" lon="5.55757">
        <ele>1225</ele>
        <time>2018-11-14T05:06:21Z</time>
      </trkpt>
      <trkpt lat="45.12448" lon="5.55735">
        <ele>1226</ele>
        <time>2018-11-14T05:07:21Z</time>
      </trkpt>
      <trkpt lat="45.12438" lon="5.55724">
        <ele>1226</ele>
        <time>2018-11-14T05:08:21Z</time>
      </trkpt>
      <trkpt lat="45.12427" lon="5.55715">
        <ele>1225</ele>
        <time>2018-11-14T05:09:21Z</time>
      </trkpt>
      <trkpt lat="45.12393" lon="5.5571">
        <ele>1224</ele>
        <time>2018-11-14T05:10:21Z</time>
      </trkpt>
      <trkpt lat="45.12379" lon="5.55699">
        <ele>1224</ele>
        <time>2018-11-14T05:11:21Z</time>
      </trkpt>
      <trkpt lat="45.12375" lon="5.55695">
        <ele>1224</ele>
        <time>2018-11-14T05:12:21Z</time>
      </trkpt>
      <trkpt lat="45.12373" lon="5.55687">
        <ele>1225</ele>
        <time>2018-11-14T05:13:21Z</time>
      </trkpt>
      <trkpt lat="45.12368" lon="5.55671">
        <ele>1226</ele>
        <time>2018-11-14T05:14:21Z</time>
      </trkpt>
      <trkpt lat="45.12367" lon="5.5562">
        <ele>1226</ele>
        <time>2018-11-14T05:15:21Z</time>
      </trkpt>
      <trkpt lat="45.12372" lon="5.55528">
        <ele>1229</ele>
        <time>2018-11-14T05:16:21Z</time>
      </trkpt>
      <trkpt lat="45.12375" lon="5.55511">
        <ele>1230</ele>
        <time>2018-11-14T05:17:21Z</time>
      </trkpt>
      <trkpt lat="45.12375" lon="5.55511">
        <ele>1230</ele>
        <time>2018-11-14T05:18:21Z</time>
      </trkpt>
      <trkpt lat="45.12378" lon="5.55486">
        <ele>1232</ele>
        <time>2018-11-14T05:19:21Z</time>
      </trkpt>
      <trkpt lat="45.12392" lon="5.55436">
        <ele>1235</ele>
        <time>2018-11-14T05:20:21Z</time>
      </trkpt>
      <trkpt lat="45.12398" lon="5.55419">
        <ele>1236</ele>
        <time>2018-11-14T05:21:21Z</time>
      </trkpt>
      <trkpt lat="45.12444" lon="5.55334">
        <ele>1245</ele>
        <time>2018-11-14T05:22:21Z</time>
      </trkpt>
      <trkpt lat="45.12461" lon="5.55306">
        <ele>1249</ele>
        <time>2018-11-14T05:23:21Z</time>
      </trkpt>
      <trkpt lat="45.12469" lon="5.55287">
        <ele>1250</ele>
        <time>2018-11-14T05:24:21Z</time>
      </trkpt>
      <trkpt lat="45.12477" lon="5.55259">
        <ele>1250</ele>
        <time>2018-11-14T05:25:21Z</time>
      </trkpt>
      <trkpt lat="45.12489" lon="5.55199">
        <ele>1250</ele>
        <time>2018-11-14T05:26:21Z</time>
      </trkpt>
      <trkpt lat="45.12496" lon="5.55187">
        <ele>1250</ele>
        <time>2018-11-14T05:27:21Z</time>
      </trkpt>
      <trkpt lat="45.12489" lon="5.55173">
        <ele>1250</ele>
        <time>2018-11-14T05:28:21Z</time>
      </trkpt>
      <trkpt lat="45.12494" lon="5.55162">
        <ele>1249</ele>
        <time>2018-11-14T05:29:21Z</time>
      </trkpt>
      <trkpt lat="45.12502" lon="5.55125">
        <ele>1248</ele>
        <time>2018-11-14T05:30:21Z</time>
      </trkpt>
      <trkpt lat="45.12513" lon="5.55097">
        <ele>1247</ele>
        <time>2018-11-14T05:31:21Z</time>
      </trkpt>
      <trkpt lat="45.12527" lon="5.55045">
        <ele>1243</ele>
        <time>2018-11-14T05:32:21Z</time>
      </trkpt>
      <trkpt lat="45.12589" lon="5.54996">
        <ele>1233</ele>
        <time>2018-11-14T05:33:21Z</time>
      </trkpt>
      <trkpt lat="45.12626" lon="5.54983">
        <ele>1228</ele>
        <time>2018-11-14T05:34:21Z</time>
      </trkpt>
      <trkpt lat="45.12697" lon="5.54953">
        <ele>1213</ele>
        <time>2018-11-14T05:35:21Z</time>
      </trkpt>
      <trkpt lat="45.12735" lon="5.54961">
        <ele>1208</ele>
        <time>2018-11-14T05:36:21Z</time>
      </trkpt>
      <trkpt lat="45.1275" lon="5.54979">
        <ele>1209</ele>
        <time>2018-11-14T05:37:21Z</time>
      </trkpt>
      <trkpt lat="45.12815" lon="5.54929">
        <ele>1189</ele>
        <time>2018-11-14T05:38:21Z</time>
      </trkpt>
      <trkpt lat="45.1289" lon="5.54936">
        <ele>1180</ele>
        <time>2018-11-14T05:39:21Z</time>
      </trkpt>
      <trkpt lat="45.13015" lon="5.54999">
        <ele>1173</ele>
        <time>2018-11-14T05:40:21Z</time>
      </trkpt>
      <trkpt lat="45.13015" lon="5.54999">
        <ele>1173</ele>
        <time>2018-11-14T05:41:21Z</time>
      </trkpt>
      <trkpt lat="45.13044" lon="5.55004">
        <ele>1171</ele>
        <time>2018-11-14T05:42:21Z</time>
      </trkpt>
      <trkpt lat="45.13056" lon="5.54997">
        <ele>1167</ele>
        <time>2018-11-14T05:43:21Z</time>
      </trkpt>
      <trkpt lat="45.1308" lon="5.54963">
        <ele>1152</ele>
        <time>2018-11-14T05:44:21Z</time>
      </trkpt>
      <trkpt lat="45.13093" lon="5.54956">
        <ele>1148</ele>
        <time>2018-11-14T05:45:21Z</time>
      </trkpt>
      <trkpt lat="45.13118" lon="5.54955">
        <ele>1145</ele>
        <time>2018-11-14T05:46:21Z</time>
      </trkpt>
      <trkpt lat="45.13154" lon="5.54977">
        <ele>1147</ele>
        <time>2018-11-14T05:47:21Z</time>
      </trkpt>
      <trkpt lat="45.13188" lon="5.54988">
        <ele>1144</ele>
        <time>2018-11-14T05:48:21Z</time>
      </trkpt>
      <trkpt lat="45.1323" lon="5.55031">
        <ele>1148</ele>
        <time>2018-11-14T05:49:21Z</time>
      </trkpt>
      <trkpt lat="45.13265" lon="5.5503">
        <ele>1143</ele>
        <time>2018-11-14T05:50:21Z</time>
      </trkpt>
      <trkpt lat="45.13305" lon="5.5502">
        <ele>1138</ele>
        <time>2018-11-14T05:51:21Z</time>
      </trkpt>
      <trkpt lat="45.13394" lon="5.54984">
        <ele>1125</ele>
        <time>2018-11-14T05:52:21Z</time>
      </trkpt>
      <trkpt lat="45.13441" lon="5.54957">
        <ele>1119</ele>
        <time>2018-11-14T05:53:21Z</time>
      </trkpt>
      <trkpt lat="45.13464" lon="5.5492">
        <ele>1111</ele>
        <time>2018-11-14T05:54:21Z</time>
      </trkpt>
      <trkpt lat="45.13551" lon="5.54861">
        <ele>1097</ele>
        <time>2018-11-14T05:55:21Z</time>
      </trkpt>
      <trkpt lat="45.13584" lon="5.54854">
        <ele>1096</ele>
        <time>2018-11-14T05:56:21Z</time>
      </trkpt>
      <trkpt lat="45.13642" lon="5.54845">
        <ele>1086</ele>
        <time>2018-11-14T05:57:21Z</time>
      </trkpt>
      <trkpt lat="45.13663" lon="5.5485">
        <ele>1086</ele>
        <time>2018-11-14T05:58:21Z</time>
      </trkpt>
      <trkpt lat="45.13707" lon="5.54867">
        <ele>1087</ele>
        <time>2018-11-14T05:59:21Z</time>
      </trkpt>
      <trkpt lat="45.1373" lon="5.54864">
        <ele>1084</ele>
        <time>2018-11-14T06:00:21Z</time>
      </trkpt>
      <trkpt lat="45.13778" lon="5.54828">
        <ele>1072</ele>
        <time>2018-11-14T06:01:21Z</time>
      </trkpt>
      <trkpt lat="45.13787" lon="5.54778">
        <ele>1060</ele>
        <time>2018-11-14T06:02:21Z</time>
      </trkpt>
      <trkpt lat="45.13801" lon="5.54766">
        <ele>1057</ele>
        <time>2018-11-14T06:03:21Z</time>
      </trkpt>
      <trkpt lat="45.13835" lon="5.54754">
        <ele>1054</ele>
        <time>2018-11-14T06:04:21Z</time>
      </trkpt>
      <trkpt lat="45.13871" lon="5.54749">
        <ele>1049</ele>
        <time>2018-11-14T06:05:21Z</time>
      </trkpt>
      <trkpt lat="45.13898" lon="5.54734">
        <ele>1045</ele>
        <time>2018-11-14T06:06:21Z</time>
      </trkpt>
      <trkpt lat="45.13921" lon="5.54708">
        <ele>1040</ele>
        <time>2018-11-14T06:07:21Z</time>
      </trkpt>
      <trkpt lat="45.1393" lon="5.54695">
        <ele>1038</ele>
        <time>2018-11-14T06:08:21Z</time>
      </trkpt>
      <trkpt lat="45.13962" lon="5.54608">
        <ele>1030</ele>
        <time>2018-11-14T06:09:21Z</time>
      </trkpt>
      <trkpt lat="45.1395" lon="5.54572">
        <ele>1027</ele>
        <time>2018-11-14T06:10:21Z</time>
      </trkpt>
      <trkpt lat="45.13941" lon="5.54532">
        <ele>1028</ele>
        <time>2018-11-14T06:11:21Z</time>
      </trkpt>
      <trkpt lat="45.13938" lon="5.545">
        <ele>1029</ele>
        <time>2018-11-14T06:12:21Z</time>
      </trkpt>
      <trkpt lat="45.13979" lon="5.54512">
        <ele>1029</ele>
        <time>2018-11-14T06:13:21Z</time>
      </trkpt>
      <trkpt lat="45.14026" lon="5.5454">
        <ele>1026</ele>
        <time>2018-11-14T06:14:21Z</time>
      </trkpt>
      <trkpt lat="45.14079" lon="5.54576">
        <ele>1019</ele>
        <time>2018-11-14T06:15:21Z</time>
      </trkpt>
      <trkpt lat="45.14126" lon="5.54588">
        <ele>1014</ele>
        <time>2018-11-14T06:16:21Z</time>
      </trkpt>
      <trkpt lat="45.14245" lon="5.54591">
        <ele>1012</ele>
        <time>2018-11-14T06:17:21Z</time>
      </trkpt>
      <trkpt lat="45.14303" lon="5.54585">
        <ele>1007</ele>
        <time>2018-11-14T06:18:21Z</time>
      </trkpt>
      <trkpt lat="45.14321" lon="5.54581">
        <ele>1006</ele>
        <time>2018-11-14T06:19:21Z</time>
      </trkpt>
      <trkpt lat="45.14336" lon="5.54565">
        <ele>1005</ele>
        <time>2018-11-14T06:20:21Z</time>
      </trkpt>
      <trkpt lat="45.14395" lon="5.54305">
        <ele>1001</ele>
        <time>2018-11-14T06:21:21Z</time>
      </trkpt>
      <trkpt lat="45.14367" lon="5.54267">
        <ele>1001</ele>
        <time>2018-11-14T06:22:21Z</time>
      </trkpt>
      <trkpt lat="45.14346" lon="5.54232">
        <ele>1000</ele>
        <time>2018-11-14T06:23:21Z</time>
      </trkpt>
      <trkpt lat="45.14337" lon="5.54215">
        <ele>1000</ele>
        <time>2018-11-14T06:24:21Z</time>
      </trkpt>
      <trkpt lat="45.14303" lon="5.54137">
        <ele>1005</ele>
        <time>2018-11-14T06:25:21Z</time>
      </trkpt>
      <trkpt lat="45.1429" lon="5.54089">
        <ele>1007</ele>
        <time>2018-11-14T06:26:21Z</time>
      </trkpt>
      <trkpt lat="45.1429" lon="5.53993">
        <ele>1008</ele>
        <time>2018-11-14T06:27:21Z</time>
      </trkpt>
      <trkpt lat="45.14281" lon="5.53924">
        <ele>1001</ele>
        <time>2018-11-14T06:28:21Z</time>
      </trkpt>
      <trkpt lat="45.14266" lon="5.53867">
        <ele>998</ele>
        <time>2018-11-14T06:29:21Z</time>
      </trkpt>
      <trkpt lat="45.14221" lon="5.53755">
        <ele>997</ele>
        <time>2018-11-14T06:30:21Z</time>
      </trkpt>
      <trkpt lat="45.14203" lon="5.53719">
        <ele>998</ele>
        <time>2018-11-14T06:31:21Z</time>
      </trkpt>
      <trkpt lat="45.14305" lon="5.53603">
        <ele>1007</ele>
        <time>2018-11-14T06:32:21Z</time>
      </trkpt>
      <trkpt lat="45.14307" lon="5.53598">
        <ele>1007</ele>
        <time>2018-11-14T06:33:21Z</time>
      </trkpt>
      <trkpt lat="45.14307" lon="5.53598">
        <ele>1007</ele>
        <time>2018-11-14T06:34:21Z</time>
      </trkpt>
      <trkpt lat="45.14345" lon="5.53509">
        <ele>1016</ele>
        <time>2018-11-14T06:35:21Z</time>
      </trkpt>
      <trkpt lat="45.1436" lon="5.53456">
        <ele>1023</ele>
        <time>2018-11-14T06:36:21Z</time>
      </trkpt>
      <trkpt lat="45.14439" lon="5.53284">
        <ele>1027</ele>
        <time>2018-11-14T06:37:21Z</time>
      </trkpt>
      <trkpt lat="45.14433" lon="5.53113">
        <ele>1037</ele>
        <time>2018-11-14T06:38:21Z</time>
      </trkpt>
      <trkpt lat="45.14427" lon="5.53062">
        <ele>1038</ele>
        <time>2018-11-14T06:39:21Z</time>
      </trkpt>
      <trkpt lat="45.14411" lon="5.52985">
        <ele>1035</ele>
        <time>2018-11-14T06:40:21Z</time>
      </trkpt>
      <trkpt lat="45.14403" lon="5.52976">
        <ele>1035</ele>
        <time>2018-11-14T06:41:21Z</time>
      </trkpt>
      <trkpt lat="45.14416" lon="5.52953">
        <ele>1036</ele>
        <time>2018-11-14T06:42:21Z</time>
      </trkpt>
      <trkpt lat="45.14415" lon="5.52942">
        <ele>1036</ele>
        <time>2018-11-14T06:43:21Z</time>
      </trkpt>
      <trkpt lat="45.14414" lon="5.52934">
        <ele>1036</ele>
        <time>2018-11-14T06:44:21Z</time>
      </trkpt>
      <trkpt lat="45.14384" lon="5.52874">
        <ele>1028</ele>
        <time>2018-11-14T06:45:21Z</time>
      </trkpt>
      <trkpt lat="45.14377" lon="5.52829">
        <ele>1021</ele>
        <time>2018-11-14T06:46:21Z</time>
      </trkpt>
      <trkpt lat="45.14372" lon="5.5274">
        <ele>1007</ele>
        <time>2018-11-14T06:47:21Z</time>
      </trkpt>
      <trkpt lat="45.14373" lon="5.5263">
        <ele>997</ele>
        <time>2018-11-14T06:48:21Z</time>
      </trkpt>
      <trkpt lat="45.14395" lon="5.52492">
        <ele>989</ele>
        <time>2018-11-14T06:49:21Z</time>
      </trkpt>
      <trkpt lat="45.14396" lon="5.52425">
        <ele>987</ele>
        <time>2018-11-14T06:50:21Z</time>
      </trkpt>
      <trkpt lat="45.14398" lon="5.52421">
        <ele>987</ele>
        <time>2018-11-14T06:51:21Z</time>
      </trkpt>
      <trkpt lat="45.14385" lon="5.52399">
        <ele>986</ele>
        <time>2018-11-14T06:52:21Z</time>
      </trkpt>
      <trkpt lat="45.14355" lon="5.52394">
        <ele>986</ele>
        <time>2018-11-14T06:53:21Z</time>
      </trkpt>
      <trkpt lat="45.14349" lon="5.52383">
        <ele>986</ele>
        <time>2018-11-14T06:54:21Z</time>
      </trkpt>
      <trkpt lat="45.14347" lon="5.52335">
        <ele>984</ele>
        <time>2018-11-14T06:55:21Z</time>
      </trkpt>
      <trkpt lat="45.14301" lon="5.52322">
        <ele>983</ele>
        <time>2018-11-14T06:56:21Z</time>
      </trkpt>
      <trkpt lat="45.14307" lon="5.52132">
        <ele>989</ele>
        <time>2018-11-14T06:57:21Z</time>
      </trkpt>
      <trkpt lat="45.14305" lon="5.52115">
        <ele>990</ele>
        <time>2018-11-14T06:58:21Z</time>
      </trkpt>
      <trkpt lat="45.14342" lon="5.52089">
        <ele>990</ele>
        <time>2018-11-14T06:59:21Z</time>
      </trkpt>
      <trkpt lat="45.14357" lon="5.52083">
        <ele>990</ele>
        <time>2018-11-14T07:00:21Z</time>
      </trkpt>
      <trkpt lat="45.144" lon="5.52088">
        <ele>990</ele>
        <time>2018-11-14T07:01:21Z</time>
      </trkpt>
      <trkpt lat="45.1442" lon="5.52081">
        <ele>990</ele>
        <time>2018-11-14T07:02:21Z</time>
      </trkpt>
      <trkpt lat="45.14484" lon="5.52036">
        <ele>988</ele>
        <time>2018-11-14T07:03:21Z</time>
      </trkpt>
      <trkpt lat="45.14497" lon="5.52019">
        <ele>987</ele>
        <time>2018-11-14T07:04:21Z</time>
      </trkpt>
      <trkpt lat="45.14507" lon="5.51999">
        <ele>987</ele>
        <time>2018-11-14T07:05:21Z</time>
      </trkpt>
      <trkpt lat="45.14522" lon="5.51943">
        <ele>992</ele>
        <time>2018-11-14T07:06:21Z</time>
      </trkpt>
      <trkpt lat="45.14537" lon="5.519">
        <ele>996</ele>
        <time>2018-11-14T07:07:21Z</time>
      </trkpt>
      <trkpt lat="45.14573" lon="5.51816">
        <ele>1005</ele>
        <time>2018-11-14T07:08:21Z</time>
      </trkpt>
      <trkpt lat="45.14537" lon="5.51743">
        <ele>1013</ele>
        <time>2018-11-14T07:09:21Z</time>
      </trkpt>
      <trkpt lat="45.14502" lon="5.51665">
        <ele>1017</ele>
        <time>2018-11-14T07:10:21Z</time>
      </trkpt>
      <trkpt lat="45.14502" lon="5.51665">
        <ele>1017</ele>
        <time>2018-11-14T07:11:21Z</time>
      </trkpt>
      <trkpt lat="45.14474" lon="5.516">
        <ele>1021</ele>
        <time>2018-11-14T07:12:21Z</time>
      </trkpt>
      <trkpt lat="45.14443" lon="5.51544">
        <ele>1032</ele>
        <time>2018-11-14T07:13:21Z</time>
      </trkpt>
      <trkpt lat="45.14433" lon="5.51533">
        <ele>1034</ele>
        <time>2018-11-14T07:14:21Z</time>
      </trkpt>
      <trkpt lat="45.14416" lon="5.51528">
        <ele>1034</ele>
        <time>2018-11-14T07:15:21Z</time>
      </trkpt>
      <trkpt lat="45.1429" lon="5.51522">
        <ele>1037</ele>
        <time>2018-11-14T07:16:21Z</time>
      </trkpt>
      <trkpt lat="45.14298" lon="5.51515">
        <ele>1039</ele>
        <time>2018-11-14T07:17:21Z</time>
      </trkpt>
      <trkpt lat="45.14316" lon="5.51508">
        <ele>1041</ele>
        <time>2018-11-14T07:18:21Z</time>
      </trkpt>
      <trkpt lat="45.14398" lon="5.51496">
        <ele>1043</ele>
        <time>2018-11-14T07:19:21Z</time>
      </trkpt>
      <trkpt lat="45.14406" lon="5.51491">
        <ele>1044</ele>
        <time>2018-11-14T07:20:21Z</time>
      </trkpt>
      <trkpt lat="45.14422" lon="5.51471">
        <ele>1050</ele>
        <time>2018-11-14T07:21:21Z</time>
      </trkpt>
      <trkpt lat="45.14434" lon="5.51468">
        <ele>1052</ele>
        <time>2018-11-14T07:22:21Z</time>
      </trkpt>
      <trkpt lat="45.14444" lon="5.51472">
        <ele>1053</ele>
        <time>2018-11-14T07:23:21Z</time>
      </trkpt>
      <trkpt lat="45.14466" lon="5.51492">
        <ele>1050</ele>
        <time>2018-11-14T07:24:21Z</time>
      </trkpt>
      <trkpt lat="45.14482" lon="5.51501">
        <ele>1049</ele>
        <time>2018-11-14T07:25:21Z</time>
      </trkpt>
      <trkpt lat="45.14526" lon="5.51512">
        <ele>1053</ele>
        <time>2018-11-14T07:26:21Z</time>
      </trkpt>
      <trkpt lat="45.14563" lon="5.5153">
        <ele>1055</ele>
        <time>2018-11-14T07:27:21Z</time>
      </trkpt>
      <trkpt lat="45.14603" lon="5.5154">
        <ele>1061</ele>
        <time>2018-11-14T07:28:21Z</time>
      </trkpt>
      <trkpt lat="45.14639" lon="5.51557">
        <ele>1066</ele>
        <time>2018-11-14T07:29:21Z</time>
      </trkpt>
      <trkpt lat="45.14675" lon="5.51586">
        <ele>1069</ele>
        <time>2018-11-14T07:30:21Z</time>
      </trkpt>
      <trkpt lat="45.14718" lon="5.51637">
        <ele>1072</ele>
        <time>2018-11-14T07:31:21Z</time>
      </trkpt>
      <trkpt lat="45.14771" lon="5.51695">
        <ele>1074</ele>
        <time>2018-11-14T07:32:21Z</time>
      </trkpt>
      <trkpt lat="45.14804" lon="5.51739">
        <ele>1073</ele>
        <time>2018-11-14T07:33:21Z</time>
      </trkpt>
      <trkpt lat="45.14821" lon="5.51754">
        <ele>1074</ele>
        <time>2018-11-14T07:34:21Z</time>
      </trkpt>
      <trkpt lat="45.14852" lon="5.51775">
        <ele>1072</ele>
        <time>2018-11-14T07:35:21Z</time>
      </trkpt>
      <trkpt lat="45.14863" lon="5.5178">
        <ele>1071</ele>
        <time>2018-11-14T07:36:21Z</time>
      </trkpt>
      <trkpt lat="45.14863" lon="5.5178">
        <ele>1071</ele>
        <time>2018-11-14T07:37:21Z</time>
      </trkpt>
      <trkpt lat="45.14875" lon="5.51785">
        <ele>1071</ele>
        <time>2018-11-14T07:38:21Z</time>
      </trkpt>
      <trkpt lat="45.14905" lon="5.51786">
        <ele>1073</ele>
        <time>2018-11-14T07:39:21Z</time>
      </trkpt>
      <trkpt lat="45.14917" lon="5.51781">
        <ele>1075</ele>
        <time>2018-11-14T07:40:21Z</time>
      </trkpt>
      <trkpt lat="45.14925" lon="5.51773">
        <ele>1077</ele>
        <time>2018-11-14T07:41:21Z</time>
      </trkpt>
      <trkpt lat="45.1493" lon="5.51762">
        <ele>1080</ele>
        <time>2018-11-14T07:42:21Z</time>
      </trkpt>
      <trkpt lat="45.14933" lon="5.51744">
        <ele>1083</ele>
        <time>2018-11-14T07:43:21Z</time>
      </trkpt>
      <trkpt lat="45.14945" lon="5.51698">
        <ele>1091</ele>
        <time>2018-11-14T07:44:21Z</time>
      </trkpt>
      <trkpt lat="45.14954" lon="5.5168">
        <ele>1094</ele>
        <time>2018-11-14T07:45:21Z</time>
      </trkpt>
      <trkpt lat="45.14961" lon="5.51673">
        <ele>1095</ele>
        <time>2018-11-14T07:46:21Z</time>
      </trkpt>
      <trkpt lat="45.14972" lon="5.51669">
        <ele>1095</ele>
        <time>2018-11-14T07:47:21Z</time>
      </trkpt>
      <trkpt lat="45.14984" lon="5.51673">
        <ele>1094</ele>
        <time>2018-11-14T07:48:21Z</time>
      </trkpt>
      <trkpt lat="45.14998" lon="5.51682">
        <ele>1092</ele>
        <time>2018-11-14T07:49:21Z</time>
      </trkpt>
      <trkpt lat="45.15006" lon="5.51694">
        <ele>1092</ele>
        <time>2018-11-14T07:50:21Z</time>
      </trkpt>
      <trkpt lat="45.15015" lon="5.51727">
        <ele>1089</ele>
        <time>2018-11-14T07:51:21Z</time>
      </trkpt>
      <trkpt lat="45.15019" lon="5.51758">
        <ele>1086</ele>
        <time>2018-11-14T07:52:21Z</time>
      </trkpt>
      <trkpt lat="45.1502" lon="5.51787">
        <ele>1084</ele>
        <time>2018-11-14T07:53:21Z</time>
      </trkpt>
      <trkpt lat="45.15023" lon="5.518">
        <ele>1083</ele>
        <time>2018-11-14T07:54:21Z</time>
      </trkpt>
      <trkpt lat="45.15033" lon="5.51814">
        <ele>1083</ele>
        <time>2018-11-14T07:55:21Z</time>
      </trkpt>
      <trkpt lat="45.1504" lon="5.5182">
        <ele>1084</ele>
        <time>2018-11-14T07:56:21Z</time>
      </trkpt>
      <trkpt lat="45.15052" lon="5.51824">
        <ele>1086</ele>
        <time>2018-11-14T07:57:21Z</time>
      </trkpt>
      <trkpt lat="45.15065" lon="5.5182">
        <ele>1088</ele>
        <time>2018-11-14T07:58:21Z</time>
      </trkpt>
      <trkpt lat="45.15072" lon="5.51813">
        <ele>1090</ele>
        <time>2018-11-14T07:59:21Z</time>
      </trkpt>
      <trkpt lat="45.1508" lon="5.518">
        <ele>1093</ele>
        <time>2018-11-14T08:00:21Z</time>
      </trkpt>
      <trkpt lat="45.15117" lon="5.51753">
        <ele>1098</ele>
        <time>2018-11-14T08:01:21Z</time>
      </trkpt>
      <trkpt lat="45.1516" lon="5.51694">
        <ele>1106</ele>
        <time>2018-11-14T08:02:21Z</time>
      </trkpt>
      <trkpt lat="45.15172" lon="5.51689">
        <ele>1106</ele>
        <time>2018-11-14T08:03:21Z</time>
      </trkpt>
      <trkpt lat="45.15197" lon="5.51695">
        <ele>1104</ele>
        <time>2018-11-14T08:04:21Z</time>
      </trkpt>
      <trkpt lat="45.15212" lon="5.51693">
        <ele>1104</ele>
        <time>2018-11-14T08:05:21Z</time>
      </trkpt>
      <trkpt lat="45.15223" lon="5.51689">
        <ele>1104</ele>
        <time>2018-11-14T08:06:21Z</time>
      </trkpt>
      <trkpt lat="45.15232" lon="5.51681">
        <ele>1104</ele>
        <time>2018-11-14T08:07:21Z</time>
      </trkpt>
      <trkpt lat="45.15236" lon="5.51597">
        <ele>1116</ele>
        <time>2018-11-14T08:08:21Z</time>
      </trkpt>
      <trkpt lat="45.1524" lon="5.51583">
        <ele>1118</ele>
        <time>2018-11-14T08:09:21Z</time>
      </trkpt>
      <trkpt lat="45.1525" lon="5.51579">
        <ele>1118</ele>
        <time>2018-11-14T08:10:21Z</time>
      </trkpt>
      <trkpt lat="45.1526" lon="5.5158">
        <ele>1119</ele>
        <time>2018-11-14T08:11:21Z</time>
      </trkpt>
      <trkpt lat="45.15283" lon="5.51629">
        <ele>1113</ele>
        <time>2018-11-14T08:12:21Z</time>
      </trkpt>
      <trkpt lat="45.15283" lon="5.51629">
        <ele>1113</ele>
        <time>2018-11-14T08:13:21Z</time>
      </trkpt>
      <trkpt lat="45.15309" lon="5.51683">
        <ele>1107</ele>
        <time>2018-11-14T08:14:21Z</time>
      </trkpt>
      <trkpt lat="45.1532" lon="5.51689">
        <ele>1106</ele>
        <time>2018-11-14T08:15:21Z</time>
      </trkpt>
      <trkpt lat="45.15337" lon="5.51689">
        <ele>1107</ele>
        <time>2018-11-14T08:16:21Z</time>
      </trkpt>
      <trkpt lat="45.1535" lon="5.51684">
        <ele>1109</ele>
        <time>2018-11-14T08:17:21Z</time>
      </trkpt>
      <trkpt lat="45.15362" lon="5.51672">
        <ele>1111</ele>
        <time>2018-11-14T08:18:21Z</time>
      </trkpt>
      <trkpt lat="45.1537" lon="5.51643">
        <ele>1116</ele>
        <time>2018-11-14T08:19:21Z</time>
      </trkpt>
      <trkpt lat="45.15376" lon="5.51633">
        <ele>1119</ele>
        <time>2018-11-14T08:20:21Z</time>
      </trkpt>
      <trkpt lat="45.15386" lon="5.51628">
        <ele>1120</ele>
        <time>2018-11-14T08:21:21Z</time>
      </trkpt>
      <trkpt lat="45.15397" lon="5.51633">
        <ele>1120</ele>
        <time>2018-11-14T08:22:21Z</time>
      </trkpt>
      <trkpt lat="45.15402" lon="5.51646">
        <ele>1118</ele>
        <time>2018-11-14T08:23:21Z</time>
      </trkpt>
      <trkpt lat="45.1541" lon="5.51658">
        <ele>1116</ele>
        <time>2018-11-14T08:24:21Z</time>
      </trkpt>
      <trkpt lat="45.1542" lon="5.51662">
        <ele>1116</ele>
        <time>2018-11-14T08:25:21Z</time>
      </trkpt>
      <trkpt lat="45.15435" lon="5.51662">
        <ele>1116</ele>
        <time>2018-11-14T08:26:21Z</time>
      </trkpt>
      <trkpt lat="45.1549" lon="5.51626">
        <ele>1124</ele>
        <time>2018-11-14T08:27:21Z</time>
      </trkpt>
      <trkpt lat="45.15512" lon="5.51602">
        <ele>1130</ele>
        <time>2018-11-14T08:28:21Z</time>
      </trkpt>
      <trkpt lat="45.15527" lon="5.51602">
        <ele>1132</ele>
        <time>2018-11-14T08:29:21Z</time>
      </trkpt>
      <trkpt lat="45.15538" lon="5.51632">
        <ele>1127</ele>
        <time>2018-11-14T08:30:21Z</time>
      </trkpt>
      <trkpt lat="45.15552" lon="5.51648">
        <ele>1125</ele>
        <time>2018-11-14T08:31:21Z</time>
      </trkpt>
      <trkpt lat="45.15567" lon="5.51657">
        <ele>1125</ele>
        <time>2018-11-14T08:32:21Z</time>
      </trkpt>
      <trkpt lat="45.15584" lon="5.51652">
        <ele>1127</ele>
        <time>2018-11-14T08:33:21Z</time>
      </trkpt>
      <trkpt lat="45.15613" lon="5.51622">
        <ele>1136</ele>
        <time>2018-11-14T08:34:21Z</time>
      </trkpt>
      <trkpt lat="45.15626" lon="5.51616">
        <ele>1139</ele>
        <time>2018-11-14T08:35:21Z</time>
      </trkpt>
      <trkpt lat="45.1564" lon="5.51618">
        <ele>1139</ele>
        <time>2018-11-14T08:36:21Z</time>
      </trkpt>
      <trkpt lat="45.15654" lon="5.51651">
        <ele>1135</ele>
        <time>2018-11-14T08:37:21Z</time>
      </trkpt>
      <trkpt lat="45.15663" lon="5.51668">
        <ele>1132</ele>
        <time>2018-11-14T08:38:21Z</time>
      </trkpt>
      <trkpt lat="45.1568" lon="5.51676">
        <ele>1132</ele>
        <time>2018-11-14T08:39:21Z</time>
      </trkpt>
      <trkpt lat="45.15717" lon="5.5168">
        <ele>1132</ele>
        <time>2018-11-14T08:40:21Z</time>
      </trkpt>
      <trkpt lat="45.1575" lon="5.51679">
        <ele>1133</ele>
        <time>2018-11-14T08:41:21Z</time>
      </trkpt>
      <trkpt lat="45.15771" lon="5.51671">
        <ele>1134</ele>
        <time>2018-11-14T08:42:21Z</time>
      </trkpt>
      <trkpt lat="45.15803" lon="5.5164">
        <ele>1140</ele>
        <time>2018-11-14T08:43:21Z</time>
      </trkpt>
      <trkpt lat="45.15828" lon="5.51602">
        <ele>1150</ele>
        <time>2018-11-14T08:44:21Z</time>
      </trkpt>
      <trkpt lat="45.1584" lon="5.51589">
        <ele>1154</ele>
        <time>2018-11-14T08:45:21Z</time>
      </trkpt>
      <trkpt lat="45.15855" lon="5.51588">
        <ele>1157</ele>
        <time>2018-11-14T08:46:21Z</time>
      </trkpt>
      <trkpt lat="45.15865" lon="5.51607">
        <ele>1153</ele>
        <time>2018-11-14T08:47:21Z</time>
      </trkpt>
      <trkpt lat="45.1587" lon="5.51645">
        <ele>1144</ele>
        <time>2018-11-14T08:48:21Z</time>
      </trkpt>
      <trkpt lat="45.1588" lon="5.51666">
        <ele>1140</ele>
        <time>2018-11-14T08:49:21Z</time>
      </trkpt>
      <trkpt lat="45.15968" lon="5.51703">
        <ele>1146</ele>
        <time>2018-11-14T08:50:21Z</time>
      </trkpt>
      <trkpt lat="45.15984" lon="5.51707">
        <ele>1148</ele>
        <time>2018-11-14T08:51:21Z</time>
      </trkpt>
      <trkpt lat="45.16045" lon="5.51705">
        <ele>1154</ele>
        <time>2018-11-14T08:52:21Z</time>
      </trkpt>
      <trkpt lat="45.16066" lon="5.51695">
        <ele>1159</ele>
        <time>2018-11-14T08:53:21Z</time>
      </trkpt>
      <trkpt lat="45.16087" lon="5.51671">
        <ele>1169</ele>
        <time>2018-11-14T08:54:21Z</time>
      </trkpt>
      <trkpt lat="45.16122" lon="5.51651">
        <ele>1180</ele>
        <time>2018-11-14T08:55:21Z</time>
      </trkpt>
      <trkpt lat="45.16135" lon="5.5165">
        <ele>1181</ele>
        <time>2018-11-14T08:56:21Z</time>
      </trkpt>
      <trkpt lat="45.16148" lon="5.51661">
        <ele>1178</ele>
        <time>2018-11-14T08:57:21Z</time>
      </trkpt>
      <trkpt lat="45.16169" lon="5.51668">
        <ele>1178</ele>
        <time>2018-11-14T08:58:21Z</time>
      </trkpt>
      <trkpt lat="45.1619" lon="5.517">
        <ele>1172</ele>
        <time>2018-11-14T08:59:21Z</time>
      </trkpt>
      <trkpt lat="45.16208" lon="5.51722">
        <ele>1169</ele>
        <time>2018-11-14T09:00:21Z</time>
      </trkpt>
      <trkpt lat="45.16234" lon="5.51725">
        <ele>1174</ele>
        <time>2018-11-14T09:01:21Z</time>
      </trkpt>
      <trkpt lat="45.16294" lon="5.51723">
        <ele>1185</ele>
        <time>2018-11-14T09:02:21Z</time>
      </trkpt>
      <trkpt lat="45.16333" lon="5.51716">
        <ele>1193</ele>
        <time>2018-11-14T09:03:21Z</time>
      </trkpt>
      <trkpt lat="45.16376" lon="5.517">
        <ele>1203</ele>
        <time>2018-11-14T09:04:21Z</time>
      </trkpt>
      <trkpt lat="45.16397" lon="5.51702">
        <ele>1204</ele>
        <time>2018-11-14T09:05:21Z</time>
      </trkpt>
      <trkpt lat="45.16411" lon="5.51723">
        <ele>1200</ele>
        <time>2018-11-14T09:06:21Z</time>
      </trkpt>
      <trkpt lat="45.16422" lon="5.51731">
        <ele>1199</ele>
        <time>2018-11-14T09:07:21Z</time>
      </trkpt>
      <trkpt lat="45.16433" lon="5.51736">
        <ele>1199</ele>
        <time>2018-11-14T09:08:21Z</time>
      </trkpt>
      <trkpt lat="45.1644" lon="5.51738">
        <ele>1199</ele>
        <time>2018-11-14T09:09:21Z</time>
      </trkpt>
      <trkpt lat="45.16467" lon="5.51737">
        <ele>1203</ele>
        <time>2018-11-14T09:10:21Z</time>
      </trkpt>
      <trkpt lat="45.1649" lon="5.5173">
        <ele>1207</ele>
        <time>2018-11-14T09:11:21Z</time>
      </trkpt>
      <trkpt lat="45.16501" lon="5.51724">
        <ele>1210</ele>
        <time>2018-11-14T09:12:21Z</time>
      </trkpt>
      <trkpt lat="45.16513" lon="5.5171">
        <ele>1213</ele>
        <time>2018-11-14T09:13:21Z</time>
      </trkpt>
      <trkpt lat="45.16535" lon="5.51679">
        <ele>1220</ele>
        <time>2018-11-14T09:14:21Z</time>
      </trkpt>
      <trkpt lat="45.16545" lon="5.51671">
        <ele>1221</ele>
        <time>2018-11-14T09:15:21Z</time>
      </trkpt>
      <trkpt lat="45.16558" lon="5.51667">
        <ele>1222</ele>
        <time>2018-11-14T09:16:21Z</time>
      </trkpt>
      <trkpt lat="45.16569" lon="5.5167">
        <ele>1222</ele>
        <time>2018-11-14T09:17:21Z</time>
      </trkpt>
      <trkpt lat="45.16578" lon="5.51677">
        <ele>1221</ele>
        <time>2018-11-14T09:18:21Z</time>
      </trkpt>
      <trkpt lat="45.16586" lon="5.51695">
        <ele>1220</ele>
        <time>2018-11-14T09:19:21Z</time>
      </trkpt>
      <trkpt lat="45.16589" lon="5.51709">
        <ele>1219</ele>
        <time>2018-11-14T09:20:21Z</time>
      </trkpt>
      <trkpt lat="45.16589" lon="5.5172">
        <ele>1218</ele>
        <time>2018-11-14T09:21:21Z</time>
      </trkpt>
      <trkpt lat="45.16583" lon="5.51742">
        <ele>1214</ele>
        <time>2018-11-14T09:22:21Z</time>
      </trkpt>
      <trkpt lat="45.16583" lon="5.51754">
        <ele>1212</ele>
        <time>2018-11-14T09:23:21Z</time>
      </trkpt>
      <trkpt lat="45.16587" lon="5.51764">
        <ele>1211</ele>
        <time>2018-11-14T09:24:21Z</time>
      </trkpt>
      <trkpt lat="45.16597" lon="5.51771">
        <ele>1212</ele>
        <time>2018-11-14T09:25:21Z</time>
      </trkpt>
      <trkpt lat="45.16626" lon="5.51773">
        <ele>1218</ele>
        <time>2018-11-14T09:26:21Z</time>
      </trkpt>
      <trkpt lat="45.16657" lon="5.51786">
        <ele>1221</ele>
        <time>2018-11-14T09:27:21Z</time>
      </trkpt>
      <trkpt lat="45.16708" lon="5.51795">
        <ele>1226</ele>
        <time>2018-11-14T09:28:21Z</time>
      </trkpt>
      <trkpt lat="45.16784" lon="5.51794">
        <ele>1231</ele>
        <time>2018-11-14T09:29:21Z</time>
      </trkpt>
      <trkpt lat="45.16815" lon="5.51789">
        <ele>1231</ele>
        <time>2018-11-14T09:30:21Z</time>
      </trkpt>
      <trkpt lat="45.16826" lon="5.51778">
        <ele>1234</ele>
        <time>2018-11-14T09:31:21Z</time>
      </trkpt>
      <trkpt lat="45.16838" lon="5.51747">
        <ele>1242</ele>
        <time>2018-11-14T09:32:21Z</time>
      </trkpt>
      <trkpt lat="45.16852" lon="5.51723">
        <ele>1248</ele>
        <time>2018-11-14T09:33:21Z</time>
      </trkpt>
      <trkpt lat="45.16884" lon="5.51712">
        <ele>1249</ele>
        <time>2018-11-14T09:34:21Z</time>
      </trkpt>
      <trkpt lat="45.16907" lon="5.51716">
        <ele>1247</ele>
        <time>2018-11-14T09:35:21Z</time>
      </trkpt>
      <trkpt lat="45.16941" lon="5.51732">
        <ele>1248</ele>
        <time>2018-11-14T09:36:21Z</time>
      </trkpt>
      <trkpt lat="45.16979" lon="5.51761">
        <ele>1250</ele>
        <time>2018-11-14T09:37:21Z</time>
      </trkpt>
      <trkpt lat="45.17009" lon="5.51778">
        <ele>1254</ele>
        <time>2018-11-14T09:38:21Z</time>
      </trkpt>
      <trkpt lat="45.17086" lon="5.51801">
        <ele>1266</ele>
        <time>2018-11-14T09:39:21Z</time>
      </trkpt>
      <trkpt lat="45.1711" lon="5.51802">
        <ele>1269</ele>
        <time>2018-11-14T09:40:21Z</time>
      </trkpt>
      <trkpt lat="45.1711" lon="5.51802">
        <ele>1269</ele>
        <time>2018-11-14T09:41:21Z</time>
      </trkpt>
      <trkpt lat="45.17155" lon="5.51798">
        <ele>1275</ele>
        <time>2018-11-14T09:42:21Z</time>
      </trkpt>
      <trkpt lat="45.17198" lon="5.51804">
        <ele>1278</ele>
        <time>2018-11-14T09:43:21Z</time>
      </trkpt>
      <trkpt lat="45.17254" lon="5.51825">
        <ele>1278</ele>
        <time>2018-11-14T09:44:21Z</time>
      </trkpt>
      <trkpt lat="45.17309" lon="5.51841">
        <ele>1283</ele>
        <time>2018-11-14T09:45:21Z</time>
      </trkpt>
      <trkpt lat="45.17378" lon="5.51848">
        <ele>1289</ele>
        <time>2018-11-14T09:46:21Z</time>
      </trkpt>
      <trkpt lat="45.17413" lon="5.51847">
        <ele>1291</ele>
        <time>2018-11-14T09:47:21Z</time>
      </trkpt>
      <trkpt lat="45.17435" lon="5.51841">
        <ele>1294</ele>
        <time>2018-11-14T09:48:21Z</time>
      </trkpt>
      <trkpt lat="45.175" lon="5.51799">
        <ele>1310</ele>
        <time>2018-11-14T09:49:21Z</time>
      </trkpt>
      <trkpt lat="45.17519" lon="5.51795">
        <ele>1314</ele>
        <time>2018-11-14T09:50:21Z</time>
      </trkpt>
      <trkpt lat="45.17564" lon="5.518">
        <ele>1320</ele>
        <time>2018-11-14T09:51:21Z</time>
      </trkpt>
      <trkpt lat="45.17605" lon="5.51816">
        <ele>1325</ele>
        <time>2018-11-14T09:52:21Z</time>
      </trkpt>
      <trkpt lat="45.17627" lon="5.51841">
        <ele>1324</ele>
        <time>2018-11-14T09:53:21Z</time>
      </trkpt>
      <trkpt lat="45.17703" lon="5.51903">
        <ele>1325</ele>
        <time>2018-11-14T09:54:21Z</time>
      </trkpt>
      <trkpt lat="45.17801" lon="5.51945">
        <ele>1329</ele>
        <time>2018-11-14T09:55:21Z</time>
      </trkpt>
      <trkpt lat="45.17839" lon="5.51975">
        <ele>1327</ele>
        <time>2018-11-14T09:56:21Z</time>
      </trkpt>
      <trkpt lat="45.17852" lon="5.5198">
        <ele>1328</ele>
        <time>2018-11-14T09:57:21Z</time>
      </trkpt>
      <trkpt lat="45.17879" lon="5.51983">
        <ele>1333</ele>
        <time>2018-11-14T09:58:21Z</time>
      </trkpt>
      <trkpt lat="45.17907" lon="5.52008">
        <ele>1330</ele>
        <time>2018-11-14T09:59:21Z</time>
      </trkpt>
      <trkpt lat="45.17977" lon="5.52079">
        <ele>1322</ele>
        <time>2018-11-14T10:00:21Z</time>
      </trkpt>
      <trkpt lat="45.18027" lon="5.52141">
        <ele>1315</ele>
        <time>2018-11-14T10:01:21Z</time>
      </trkpt>
      <trkpt lat="45.18052" lon="5.5216">
        <ele>1314</ele>
        <time>2018-11-14T10:02:21Z</time>
      </trkpt>
      <trkpt lat="45.18074" lon="5.52163">
        <ele>1317</ele>
        <time>2018-11-14T10:03:21Z</time>
      </trkpt>
      <trkpt lat="45.18133" lon="5.52193">
        <ele>1323</ele>
        <time>2018-11-14T10:04:21Z</time>
      </trkpt>
      <trkpt lat="45.18146" lon="5.52209">
        <ele>1322</ele>
        <time>2018-11-14T10:05:21Z</time>
      </trkpt>
      <trkpt lat="45.18197" lon="5.5224">
        <ele>1328</ele>
        <time>2018-11-14T10:06:21Z</time>
      </trkpt>
      <trkpt lat="45.18211" lon="5.52259">
        <ele>1327</ele>
        <time>2018-11-14T10:07:21Z</time>
      </trkpt>
      <trkpt lat="45.18237" lon="5.52273">
        <ele>1330</ele>
        <time>2018-11-14T10:08:21Z</time>
      </trkpt>
      <trkpt lat="45.18321" lon="5.52345">
        <ele>1336</ele>
        <time>2018-11-14T10:09:21Z</time>
      </trkpt>
      <trkpt lat="45.18393" lon="5.52394">
        <ele>1344</ele>
        <time>2018-11-14T10:10:21Z</time>
      </trkpt>
      <trkpt lat="45.18469" lon="5.52466">
        <ele>1350</ele>
        <time>2018-11-14T10:11:21Z</time>
      </trkpt>
      <trkpt lat="45.18525" lon="5.52558">
        <ele>1349</ele>
        <time>2018-11-14T10:12:21Z</time>
      </trkpt>
      <trkpt lat="45.18593" lon="5.52613">
        <ele>1356</ele>
        <time>2018-11-14T10:13:21Z</time>
      </trkpt>
      <trkpt lat="45.18593" lon="5.52613">
        <ele>1356</ele>
        <time>2018-11-14T10:14:21Z</time>
      </trkpt>
      <trkpt lat="45.18634" lon="5.52651">
        <ele>1357</ele>
        <time>2018-11-14T10:15:21Z</time>
      </trkpt>
      <trkpt lat="45.18677" lon="5.52695">
        <ele>1356</ele>
        <time>2018-11-14T10:16:21Z</time>
      </trkpt>
      <trkpt lat="45.18706" lon="5.52733">
        <ele>1352</ele>
        <time>2018-11-14T10:17:21Z</time>
      </trkpt>
      <trkpt lat="45.18764" lon="5.528">
        <ele>1348</ele>
        <time>2018-11-14T10:18:21Z</time>
      </trkpt>
      <trkpt lat="45.18793" lon="5.52827">
        <ele>1348</ele>
        <time>2018-11-14T10:19:21Z</time>
      </trkpt>
      <trkpt lat="45.18828" lon="5.52855">
        <ele>1350</ele>
        <time>2018-11-14T10:20:21Z</time>
      </trkpt>
      <trkpt lat="45.18856" lon="5.5287">
        <ele>1348</ele>
        <time>2018-11-14T10:21:21Z</time>
      </trkpt>
      <trkpt lat="45.18893" lon="5.52883">
        <ele>1346</ele>
        <time>2018-11-14T10:22:21Z</time>
      </trkpt>
      <trkpt lat="45.18975" lon="5.52886">
        <ele>1355</ele>
        <time>2018-11-14T10:23:21Z</time>
      </trkpt>
      <trkpt lat="45.19015" lon="5.52901">
        <ele>1356</ele>
        <time>2018-11-14T10:24:21Z</time>
      </trkpt>
      <trkpt lat="45.19083" lon="5.52937">
        <ele>1352</ele>
        <time>2018-11-14T10:25:21Z</time>
      </trkpt>
      <trkpt lat="45.19142" lon="5.52962">
        <ele>1355</ele>
        <time>2018-11-14T10:26:21Z</time>
      </trkpt>
      <trkpt lat="45.19203" lon="5.52994">
        <ele>1356</ele>
        <time>2018-11-14T10:27:21Z</time>
      </trkpt>
      <trkpt lat="45.19283" lon="5.53025">
        <ele>1362</ele>
        <time>2018-11-14T10:28:21Z</time>
      </trkpt>
      <trkpt lat="45.19313" lon="5.53034">
        <ele>1364</ele>
        <time>2018-11-14T10:29:21Z</time>
      </trkpt>
      <trkpt lat="45.19376" lon="5.53059">
        <ele>1364</ele>
        <time>2018-11-14T10:30:21Z</time>
      </trkpt>
      <trkpt lat="45.19478" lon="5.53106">
        <ele>1361</ele>
        <time>2018-11-14T10:31:21Z</time>
      </trkpt>
      <trkpt lat="45.19515" lon="5.53121">
        <ele>1360</ele>
        <time>2018-11-14T10:32:21Z</time>
      </trkpt>
      <trkpt lat="45.19619" lon="5.53151">
        <ele>1357</ele>
        <time>2018-11-14T10:33:21Z</time>
      </trkpt>
      <trkpt lat="45.19638" lon="5.53152">
        <ele>1358</ele>
        <time>2018-11-14T10:34:21Z</time>
      </trkpt>
      <trkpt lat="45.19653" lon="5.53157">
        <ele>1357</ele>
        <time>2018-11-14T10:35:21Z</time>
      </trkpt>
      <trkpt lat="45.19737" lon="5.53216">
        <ele>1352</ele>
        <time>2018-11-14T10:36:21Z</time>
      </trkpt>
      <trkpt lat="45.19783" lon="5.53256">
        <ele>1350</ele>
        <time>2018-11-14T10:37:21Z</time>
      </trkpt>
      <trkpt lat="45.19803" lon="5.53276">
        <ele>1349</ele>
        <time>2018-11-14T10:38:21Z</time>
      </trkpt>
      <trkpt lat="45.19803" lon="5.53276">
        <ele>1349</ele>
        <time>2018-11-14T10:39:21Z</time>
      </trkpt>
      <trkpt lat="45.19809" lon="5.53283">
        <ele>1349</ele>
        <time>2018-11-14T10:40:21Z</time>
      </trkpt>
      <trkpt lat="45.19832" lon="5.53332">
        <ele>1342</ele>
        <time>2018-11-14T10:41:21Z</time>
      </trkpt>
      <trkpt lat="45.19851" lon="5.53356">
        <ele>1342</ele>
        <time>2018-11-14T10:42:21Z</time>
      </trkpt>
      <trkpt lat="45.19877" lon="5.53377">
        <ele>1343</ele>
        <time>2018-11-14T10:43:21Z</time>
      </trkpt>
      <trkpt lat="45.19911" lon="5.53418">
        <ele>1340</ele>
        <time>2018-11-14T10:44:21Z</time>
      </trkpt>
      <trkpt lat="45.19959" lon="5.53431">
        <ele>1344</ele>
        <time>2018-11-14T10:45:21Z</time>
      </trkpt>
      <trkpt lat="45.19978" lon="5.53439">
        <ele>1345</ele>
        <time>2018-11-14T10:46:21Z</time>
      </trkpt>
      <trkpt lat="45.19993" lon="5.53448">
        <ele>1344</ele>
        <time>2018-11-14T10:47:21Z</time>
      </trkpt>
      <trkpt lat="45.2" lon="5.53458">
        <ele>1342</ele>
        <time>2018-11-14T10:48:21Z</time>
      </trkpt>
      <trkpt lat="45.20015" lon="5.53492">
        <ele>1335</ele>
        <time>2018-11-14T10:49:21Z</time>
      </trkpt>
      <trkpt lat="45.20022" lon="5.53501">
        <ele>1334</ele>
        <time>2018-11-14T10:50:21Z</time>
      </trkpt>
      <trkpt lat="45.20029" lon="5.53506">
        <ele>1334</ele>
        <time>2018-11-14T10:51:21Z</time>
      </trkpt>
      <trkpt lat="45.20039" lon="5.53507">
        <ele>1335</ele>
        <time>2018-11-14T10:52:21Z</time>
      </trkpt>
      <trkpt lat="45.20071" lon="5.535">
        <ele>1340</ele>
        <time>2018-11-14T10:53:21Z</time>
      </trkpt>
      <trkpt lat="45.20079" lon="5.53501">
        <ele>1341</ele>
        <time>2018-11-14T10:54:21Z</time>
      </trkpt>
      <trkpt lat="45.20087" lon="5.53504">
        <ele>1342</ele>
        <time>2018-11-14T10:55:21Z</time>
      </trkpt>
      <trkpt lat="45.20092" lon="5.53515">
        <ele>1341</ele>
        <time>2018-11-14T10:56:21Z</time>
      </trkpt>
      <trkpt lat="45.20095" lon="5.53542">
        <ele>1336</ele>
        <time>2018-11-14T10:57:21Z</time>
      </trkpt>
      <trkpt lat="45.20111" lon="5.53578">
        <ele>1332</ele>
        <time>2018-11-14T10:58:21Z</time>
      </trkpt>
      <trkpt lat="45.20125" lon="5.53633">
        <ele>1328</ele>
        <time>2018-11-14T10:59:21Z</time>
      </trkpt>
      <trkpt lat="45.20128" lon="5.5365">
        <ele>1327</ele>
        <time>2018-11-14T11:00:21Z</time>
      </trkpt>
      <trkpt lat="45.20124" lon="5.53661">
        <ele>1325</ele>
        <time>2018-11-14T11:01:21Z</time>
      </trkpt>
      <trkpt lat="45.20102" lon="5.53677">
        <ele>1318</ele>
        <time>2018-11-14T11:02:21Z</time>
      </trkpt>
      <trkpt lat="45.20102" lon="5.53696">
        <ele>1315</ele>
        <time>2018-11-14T11:03:21Z</time>
      </trkpt>
      <trkpt lat="45.2011" lon="5.53718">
        <ele>1313</ele>
        <time>2018-11-14T11:04:21Z</time>
      </trkpt>
      <trkpt lat="45.20145" lon="5.53779">
        <ele>1314</ele>
        <time>2018-11-14T11:05:21Z</time>
      </trkpt>
      <trkpt lat="45.20165" lon="5.53788">
        <ele>1317</ele>
        <time>2018-11-14T11:06:21Z</time>
      </trkpt>
      <trkpt lat="45.20184" lon="5.53787">
        <ele>1321</ele>
        <time>2018-11-14T11:07:21Z</time>
      </trkpt>
      <trkpt lat="45.20192" lon="5.53791">
        <ele>1321</ele>
        <time>2018-11-14T11:08:21Z</time>
      </trkpt>
      <trkpt lat="45.20193" lon="5.53798">
        <ele>1320</ele>
        <time>2018-11-14T11:09:21Z</time>
      </trkpt>
      <trkpt lat="45.20158" lon="5.5381">
        <ele>1312</ele>
        <time>2018-11-14T11:10:21Z</time>
      </trkpt>
      <trkpt lat="45.20133" lon="5.53817">
        <ele>1307</ele>
        <time>2018-11-14T11:11:21Z</time>
      </trkpt>
      <trkpt lat="45.20115" lon="5.53811">
        <ele>1305</ele>
        <time>2018-11-14T11:12:21Z</time>
      </trkpt>
      <trkpt lat="45.20103" lon="5.53799">
        <ele>1304</ele>
        <time>2018-11-14T11:13:21Z</time>
      </trkpt>
      <trkpt lat="45.20094" lon="5.53762">
        <ele>1304</ele>
        <time>2018-11-14T11:14:21Z</time>
      </trkpt>
      <trkpt lat="45.20084" lon="5.53746">
        <ele>1302</ele>
        <time>2018-11-14T11:15:21Z</time>
      </trkpt>
      <trkpt lat="45.20038" lon="5.53716">
        <ele>1298</ele>
        <time>2018-11-14T11:16:21Z</time>
      </trkpt>
      <trkpt lat="45.20018" lon="5.53708">
        <ele>1296</ele>
        <time>2018-11-14T11:17:21Z</time>
      </trkpt>
      <trkpt lat="45.19996" lon="5.5371">
        <ele>1292</ele>
        <time>2018-11-14T11:18:21Z</time>
      </trkpt>
      <trkpt lat="45.19961" lon="5.53716">
        <ele>1286</ele>
        <time>2018-11-14T11:19:21Z</time>
      </trkpt>
      <trkpt lat="45.19912" lon="5.53713">
        <ele>1279</ele>
        <time>2018-11-14T11:20:21Z</time>
      </trkpt>
      <trkpt lat="45.19872" lon="5.53717">
        <ele>1275</ele>
        <time>2018-11-14T11:21:21Z</time>
      </trkpt>
      <trkpt lat="45.19823" lon="5.53725">
        <ele>1268</ele>
        <time>2018-11-14T11:22:21Z</time>
      </trkpt>
      <trkpt lat="45.1976" lon="5.53746">
        <ele>1257</ele>
        <time>2018-11-14T11:23:21Z</time>
      </trkpt>
      <trkpt lat="45.19742" lon="5.53742">
        <ele>1255</ele>
        <time>2018-11-14T11:24:21Z</time>
      </trkpt>
      <trkpt lat="45.19694" lon="5.53705">
        <ele>1252</ele>
        <time>2018-11-14T11:25:21Z</time>
      </trkpt>
      <trkpt lat="45.19642" lon="5.53673">
        <ele>1247</ele>
        <time>2018-11-14T11:26:21Z</time>
      </trkpt>
      <trkpt lat="45.19619" lon="5.53663">
        <ele>1244</ele>
        <time>2018-11-14T11:27:21Z</time>
      </trkpt>
      <trkpt lat="45.19603" lon="5.53662">
        <ele>1242</ele>
        <time>2018-11-14T11:28:21Z</time>
      </trkpt>
      <trkpt lat="45.19582" lon="5.53667">
        <ele>1238</ele>
        <time>2018-11-14T11:29:21Z</time>
      </trkpt>
      <trkpt lat="45.19557" lon="5.53684">
        <ele>1235</ele>
        <time>2018-11-14T11:30:21Z</time>
      </trkpt>
      <trkpt lat="45.19539" lon="5.53701">
        <ele>1232</ele>
        <time>2018-11-14T11:31:21Z</time>
      </trkpt>
      <trkpt lat="45.19527" lon="5.53702">
        <ele>1231</ele>
        <time>2018-11-14T11:32:21Z</time>
      </trkpt>
      <trkpt lat="45.19513" lon="5.53695">
        <ele>1231</ele>
        <time>2018-11-14T11:33:21Z</time>
      </trkpt>
      <trkpt lat="45.19499" lon="5.53691">
        <ele>1230</ele>
        <time>2018-11-14T11:34:21Z</time>
      </trkpt>
      <trkpt lat="45.19478" lon="5.53693">
        <ele>1228</ele>
        <time>2018-11-14T11:35:21Z</time>
      </trkpt>
      <trkpt lat="45.19407" lon="5.53678">
        <ele>1221</ele>
        <time>2018-11-14T11:36:21Z</time>
      </trkpt>
      <trkpt lat="45.19386" lon="5.53676">
        <ele>1219</ele>
        <time>2018-11-14T11:37:21Z</time>
      </trkpt>
      <trkpt lat="45.1935" lon="5.53693">
        <ele>1210</ele>
        <time>2018-11-14T11:38:21Z</time>
      </trkpt>
      <trkpt lat="45.19325" lon="5.53693">
        <ele>1206</ele>
        <time>2018-11-14T11:39:21Z</time>
      </trkpt>
      <trkpt lat="45.19301" lon="5.5369">
        <ele>1203</ele>
        <time>2018-11-14T11:40:21Z</time>
      </trkpt>
      <trkpt lat="45.19301" lon="5.5369">
        <ele>1203</ele>
        <time>2018-11-14T11:41:21Z</time>
      </trkpt>
      <trkpt lat="45.1928" lon="5.53687">
        <ele>1199</ele>
        <time>2018-11-14T11:42:21Z</time>
      </trkpt>
      <trkpt lat="45.19251" lon="5.53677">
        <ele>1196</ele>
        <time>2018-11-14T11:43:21Z</time>
      </trkpt>
      <trkpt lat="45.1922" lon="5.53658">
        <ele>1195</ele>
        <time>2018-11-14T11:44:21Z</time>
      </trkpt>
      <trkpt lat="45.19187" lon="5.53647">
        <ele>1192</ele>
        <time>2018-11-14T11:45:21Z</time>
      </trkpt>
      <trkpt lat="45.19154" lon="5.53648">
        <ele>1187</ele>
        <time>2018-11-14T11:46:21Z</time>
      </trkpt>
      <trkpt lat="45.19104" lon="5.53655">
        <ele>1177</ele>
        <time>2018-11-14T11:47:21Z</time>
      </trkpt>
      <trkpt lat="45.19089" lon="5.53654">
        <ele>1175</ele>
        <time>2018-11-14T11:48:21Z</time>
      </trkpt>
      <trkpt lat="45.19074" lon="5.53643">
        <ele>1173</ele>
        <time>2018-11-14T11:49:21Z</time>
      </trkpt>
      <trkpt lat="45.19046" lon="5.53575">
        <ele>1175</ele>
        <time>2018-11-14T11:50:21Z</time>
      </trkpt>
      <trkpt lat="45.19024" lon="5.53533">
        <ele>1175</ele>
        <time>2018-11-14T11:51:21Z</time>
      </trkpt>
      <trkpt lat="45.19008" lon="5.53527">
        <ele>1171</ele>
        <time>2018-11-14T11:52:21Z</time>
      </trkpt>
      <trkpt lat="45.18997" lon="5.53527">
        <ele>1169</ele>
        <time>2018-11-14T11:53:21Z</time>
      </trkpt>
      <trkpt lat="45.18959" lon="5.53549">
        <ele>1161</ele>
        <time>2018-11-14T11:54:21Z</time>
      </trkpt>
      <trkpt lat="45.18937" lon="5.53557">
        <ele>1157</ele>
        <time>2018-11-14T11:55:21Z</time>
      </trkpt>
      <trkpt lat="45.18924" lon="5.53559">
        <ele>1155</ele>
        <time>2018-11-14T11:56:21Z</time>
      </trkpt>
      <trkpt lat="45.18926" lon="5.53566">
        <ele>1154</ele>
        <time>2018-11-14T11:57:21Z</time>
      </trkpt>
      <trkpt lat="45.18902" lon="5.53566">
        <ele>1150</ele>
        <time>2018-11-14T11:58:21Z</time>
      </trkpt>
      <trkpt lat="45.18876" lon="5.53553">
        <ele>1147</ele>
        <time>2018-11-14T11:59:21Z</time>
      </trkpt>
      <trkpt lat="45.18852" lon="5.53508">
        <ele>1150</ele>
        <time>2018-11-14T12:00:21Z</time>
      </trkpt>
      <trkpt lat="45.18837" lon="5.53503">
        <ele>1149</ele>
        <time>2018-11-14T12:01:21Z</time>
      </trkpt>
      <trkpt lat="45.18833" lon="5.53518">
        <ele>1145</ele>
        <time>2018-11-14T12:02:21Z</time>
      </trkpt>
      <trkpt lat="45.18811" lon="5.5354">
        <ele>1138</ele>
        <time>2018-11-14T12:03:21Z</time>
      </trkpt>
      <trkpt lat="45.18785" lon="5.53557">
        <ele>1130</ele>
        <time>2018-11-14T12:04:21Z</time>
      </trkpt>
      <trkpt lat="45.18731" lon="5.53535">
        <ele>1125</ele>
        <time>2018-11-14T12:05:21Z</time>
      </trkpt>
      <trkpt lat="45.18638" lon="5.53484">
        <ele>1115</ele>
        <time>2018-11-14T12:06:21Z</time>
      </trkpt>
      <trkpt lat="45.18613" lon="5.53482">
        <ele>1110</ele>
        <time>2018-11-14T12:07:21Z</time>
      </trkpt>
      <trkpt lat="45.18604" lon="5.53496">
        <ele>1108</ele>
        <time>2018-11-14T12:08:21Z</time>
      </trkpt>
      <trkpt lat="45.18577" lon="5.53584">
        <ele>1093</ele>
        <time>2018-11-14T12:09:21Z</time>
      </trkpt>
      <trkpt lat="45.18562" lon="5.53595">
        <ele>1090</ele>
        <time>2018-11-14T12:10:21Z</time>
      </trkpt>
      <trkpt lat="45.18516" lon="5.53605">
        <ele>1082</ele>
        <time>2018-11-14T12:11:21Z</time>
      </trkpt>
      <trkpt lat="45.1847" lon="5.53628">
        <ele>1077</ele>
        <time>2018-11-14T12:12:21Z</time>
      </trkpt>
      <trkpt lat="45.18451" lon="5.53647">
        <ele>1075</ele>
        <time>2018-11-14T12:13:21Z</time>
      </trkpt>
      <trkpt lat="45.18424" lon="5.53704">
        <ele>1074</ele>
        <time>2018-11-14T12:14:21Z</time>
      </trkpt>
      <trkpt lat="45.1841" lon="5.53726">
        <ele>1074</ele>
        <time>2018-11-14T12:15:21Z</time>
      </trkpt>
      <trkpt lat="45.1835" lon="5.53739">
        <ele>1070</ele>
        <time>2018-11-14T12:16:21Z</time>
      </trkpt>
      <trkpt lat="45.18317" lon="5.53741">
        <ele>1068</ele>
        <time>2018-11-14T12:17:21Z</time>
      </trkpt>
      <trkpt lat="45.18261" lon="5.53754">
        <ele>1065</ele>
        <time>2018-11-14T12:18:21Z</time>
      </trkpt>
      <trkpt lat="45.18237" lon="5.53758">
        <ele>1064</ele>
        <time>2018-11-14T12:19:21Z</time>
      </trkpt>
      <trkpt lat="45.18197" lon="5.53757">
        <ele>1063</ele>
        <time>2018-11-14T12:20:21Z</time>
      </trkpt>
      <trkpt lat="45.18163" lon="5.53759">
        <ele>1062</ele>
        <time>2018-11-14T12:21:21Z</time>
      </trkpt>
      <trkpt lat="45.18127" lon="5.53766">
        <ele>1061</ele>
        <time>2018-11-14T12:22:21Z</time>
      </trkpt>
      <trkpt lat="45.18083" lon="5.53741">
        <ele>1060</ele>
        <time>2018-11-14T12:23:21Z</time>
      </trkpt>
      <trkpt lat="45.18047" lon="5.53728">
        <ele>1060</ele>
        <time>2018-11-14T12:24:21Z</time>
      </trkpt>
      <trkpt lat="45.18013" lon="5.53723">
        <ele>1060</ele>
        <time>2018-11-14T12:25:21Z</time>
      </trkpt>
      <trkpt lat="45.17974" lon="5.53727">
        <ele>1060</ele>
        <time>2018-11-14T12:26:21Z</time>
      </trkpt>
      <trkpt lat="45.17938" lon="5.53735">
        <ele>1061</ele>
        <time>2018-11-14T12:27:21Z</time>
      </trkpt>
      <trkpt lat="45.17919" lon="5.53729">
        <ele>1061</ele>
        <time>2018-11-14T12:28:21Z</time>
      </trkpt>
      <trkpt lat="45.17891" lon="5.53711">
        <ele>1059</ele>
        <time>2018-11-14T12:29:21Z</time>
      </trkpt>
      <trkpt lat="45.17839" lon="5.53688">
        <ele>1056</ele>
        <time>2018-11-14T12:30:21Z</time>
      </trkpt>
      <trkpt lat="45.17819" lon="5.53676">
        <ele>1055</ele>
        <time>2018-11-14T12:31:21Z</time>
      </trkpt>
      <trkpt lat="45.17804" lon="5.53661">
        <ele>1055</ele>
        <time>2018-11-14T12:32:21Z</time>
      </trkpt>
      <trkpt lat="45.17789" lon="5.53655">
        <ele>1054</ele>
        <time>2018-11-14T12:33:21Z</time>
      </trkpt>
      <trkpt lat="45.17714" lon="5.53646">
        <ele>1050</ele>
        <time>2018-11-14T12:34:21Z</time>
      </trkpt>
      <trkpt lat="45.17685" lon="5.53649">
        <ele>1049</ele>
        <time>2018-11-14T12:35:21Z</time>
      </trkpt>
      <trkpt lat="45.17666" lon="5.5366">
        <ele>1049</ele>
        <time>2018-11-14T12:36:21Z</time>
      </trkpt>
      <trkpt lat="45.1767" lon="5.53686">
        <ele>1049</ele>
        <time>2018-11-14T12:37:21Z</time>
      </trkpt>
      <trkpt lat="45.17661" lon="5.53708">
        <ele>1048</ele>
        <time>2018-11-14T12:38:21Z</time>
      </trkpt>
      <trkpt lat="45.17651" lon="5.53745">
        <ele>1047</ele>
        <time>2018-11-14T12:39:21Z</time>
      </trkpt>
      <trkpt lat="45.17645" lon="5.53781">
        <ele>1044</ele>
        <time>2018-11-14T12:40:21Z</time>
      </trkpt>
      <trkpt lat="45.17644" lon="5.53807">
        <ele>1042</ele>
        <time>2018-11-14T12:41:21Z</time>
      </trkpt>
      <trkpt lat="45.17637" lon="5.53833">
        <ele>1040</ele>
        <time>2018-11-14T12:42:21Z</time>
      </trkpt>
      <trkpt lat="45.17629" lon="5.53851">
        <ele>1039</ele>
        <time>2018-11-14T12:43:21Z</time>
      </trkpt>
      <trkpt lat="45.17588" lon="5.53975">
        <ele>1039</ele>
        <time>2018-11-14T12:44:21Z</time>
      </trkpt>
      <trkpt lat="45.17602" lon="5.53984">
        <ele>1039</ele>
        <time>2018-11-14T12:45:21Z</time>
      </trkpt>
    </trkseg>
  </trk>
</gpx>